Wetterdaten: Dienstag, 02.06.2015
Datum Zeit Temp. Aussen +5cm Feuchte Auss BlattFeu 1 Luftdruck Regen Sonnenschein Regendauer Solar Windben
02.06.2015 00:00 13,8 C 11,7 C 67 % 0 lf 1013,3 hPa 0,0 l/m 0 min 0 min 0 W/m 10,5 km/h (2 Bft)
02.06.2015 00:02 13,7 C 11,7 C 67 % 0 lf 1013,3 hPa 0,0 l/m 0 min 0 min 0 W/m 12,6 km/h (3 Bft)
02.06.2015 00:05 13,7 C 11,7 C 67 % 0 lf 1013,2 hPa 0,0 l/m 0 min 0 min 0 W/m 10,5 km/h (2 Bft)
02.06.2015 00:06 13,7 C 11,7 C 67 % 0 lf 1013,2 hPa 0,0 l/m 0 min 0 min 0 W/m 14,6 km/h (3 Bft)
02.06.2015 00:08 13,6 C 11,1 C 67 % 0 lf 1013,2 hPa 0,0 l/m 0 min 0 min 0 W/m 10,5 km/h (2 Bft)
02.06.2015 00:10 13,6 C 11,1 C 67 % 0 lf 1013,2 hPa 0,0 l/m 0 min 0 min 0 W/m 12,6 km/h (3 Bft)
02.06.2015 00:12 13,6 C 11,1 C 67 % 0 lf 1013,2 hPa 0,0 l/m 0 min 0 min 0 W/m 10,5 km/h (2 Bft)
02.06.2015 00:14 13,5 C 11,1 C 67 % 0 lf 1013,2 hPa 0,0 l/m 0 min 0 min 0 W/m 10,5 km/h (2 Bft)
02.06.2015 00:16 13,5 C 11,1 C 67 % 0 lf 1013,1 hPa 0,0 l/m 0 min 0 min 0 W/m 10,5 km/h (2 Bft)
02.06.2015 00:18 13,4 C 11,1 C 68 % 0 lf 1013,1 hPa 0,0 l/m 0 min 0 min 0 W/m 12,6 km/h (3 Bft)
02.06.2015 00:20 13,4 C 11,1 C 68 % 0 lf 1013,1 hPa 0,0 l/m 0 min 0 min 0 W/m 14,6 km/h (3 Bft)
02.06.2015 00:22 13,4 C 11,1 C 68 % 0 lf 1013,2 hPa 0,0 l/m 0 min 0 min 0 W/m 14,6 km/h (3 Bft)
02.06.2015 00:24 13,3 C 11,1 C 68 % 0 lf 1013,0 hPa 0,0 l/m 0 min 0 min 0 W/m 14,6 km/h (3 Bft)
02.06.2015 00:26 13,3 C 11,1 C 68 % 0 lf 1013,1 hPa 0,0 l/m 0 min 0 min 0 W/m 16,7 km/h (3 Bft)
02.06.2015 00:28 13,3 C 11,1 C 68 % 0 lf 1013,2 hPa 0,0 l/m 0 min 0 min 0 W/m 14,6 km/h (3 Bft)
02.06.2015 00:30 13,2 C 11,1 C 68 % 0 lf 1013,1 hPa 0,0 l/m 0 min 0 min 0 W/m 10,5 km/h (2 Bft)
02.06.2015 00:32 13,2 C 11,1 C 68 % 0 lf 1013,0 hPa 0,0 l/m 0 min 0 min 0 W/m 12,6 km/h (3 Bft)
02.06.2015 00:34 13,2 C 11,1 C 68 % 0 lf 1012,9 hPa 0,0 l/m 0 min 0 min 0 W/m 12,6 km/h (3 Bft)
02.06.2015 00:36 13,2 C 11,1 C 69 % 0 lf 1012,9 hPa 0,0 l/m 0 min 0 min 0 W/m 10,5 km/h (2 Bft)
02.06.2015 00:38 13,1 C 11,1 C 69 % 0 lf 1013,0 hPa 0,0 l/m 0 min 0 min 0 W/m 14,6 km/h (3 Bft)
02.06.2015 00:40 13,1 C 11,1 C 69 % 0 lf 1012,9 hPa 0,0 l/m 0 min 0 min 0 W/m 10,5 km/h (2 Bft)
02.06.2015 00:42 13,1 C 11,1 C 69 % 0 lf 1012,9 hPa 0,0 l/m 0 min 0 min 0 W/m 10,5 km/h (2 Bft)
02.06.2015 00:44 13,0 C 11,1 C 69 % 0 lf 1012,9 hPa 0,0 l/m 0 min 0 min 0 W/m 12,6 km/h (3 Bft)
02.06.2015 00:46 13,0 C 11,1 C 69 % 0 lf 1012,9 hPa 0,0 l/m 0 min 0 min 0 W/m 14,6 km/h (3 Bft)
02.06.2015 00:48 13,0 C 11,1 C 69 % 0 lf 1012,9 hPa 0,0 l/m 0 min 0 min 0 W/m 14,6 km/h (3 Bft)
02.06.2015 00:50 12,9 C 11,1 C 69 % 0 lf 1012,9 hPa 0,0 l/m 0 min 0 min 0 W/m 14,6 km/h (3 Bft)
02.06.2015 00:52 12,9 C 11,1 C 69 % 0 lf 1012,9 hPa 0,0 l/m 0 min 0 min 0 W/m 14,6 km/h (3 Bft)
02.06.2015 00:54 12,9 C 11,1 C 69 % 0 lf 1012,9 hPa 0,0 l/m 0 min 0 min 0 W/m 12,6 km/h (3 Bft)
02.06.2015 00:56 12,9 C 11,1 C 69 % 0 lf 1012,9 hPa 0,0 l/m 0 min 0 min 0 W/m 8,4 km/h (2 Bft)
02.06.2015 00:58 12,9 C 11,1 C 70 % 0 lf 1012,8 hPa 0,0 l/m 0 min 0 min 0 W/m 14,6 km/h (3 Bft)
02.06.2015 01:00 12,9 C 11,1 C 69 % 0 lf 1012,8 hPa 0,0 l/m 0 min 0 min 0 W/m 14,6 km/h (3 Bft)
02.06.2015 01:02 12,9 C 11,1 C 69 % 0 lf 1012,8 hPa 0,0 l/m 0 min 0 min 0 W/m 6,3 km/h (2 Bft)
02.06.2015 01:04 12,8 C 11,1 C 70 % 0 lf 1012,8 hPa 0,0 l/m 0 min 0 min 0 W/m 16,7 km/h (3 Bft)
02.06.2015 01:06 12,8 C 11,1 C 69 % 0 lf 1012,8 hPa 0,0 l/m 0 min 0 min 0 W/m 14,6 km/h (3 Bft)
02.06.2015 01:08 12,8 C 11,1 C 70 % 0 lf 1012,9 hPa 0,0 l/m 0 min 0 min 0 W/m 14,6 km/h (3 Bft)
02.06.2015 01:10 12,8 C 10,6 C 70 % 0 lf 1012,9 hPa 0,0 l/m 0 min 0 min 0 W/m 10,5 km/h (2 Bft)
02.06.2015 01:12 12,8 C 11,1 C 70 % 0 lf 1012,9 hPa 0,0 l/m 0 min 0 min 0 W/m 10,5 km/h (2 Bft)
02.06.2015 01:14 12,7 C 11,1 C 70 % 0 lf 1012,9 hPa 0,0 l/m 0 min 0 min 0 W/m 12,6 km/h (3 Bft)
02.06.2015 01:16 12,7 C 11,1 C 70 % 0 lf 1012,8 hPa 0,0 l/m 0 min 0 min 0 W/m 18,8 km/h (3 Bft)
02.06.2015 01:18 12,7 C 10,6 C 70 % 0 lf 1012,8 hPa 0,0 l/m 0 min 0 min 0 W/m 12,6 km/h (3 Bft)
02.06.2015 01:20 12,7 C 10,6 C 70 % 0 lf 1012,8 hPa 0,0 l/m 0 min 0 min 0 W/m 14,6 km/h (3 Bft)
02.06.2015 01:22 12,6 C 10,6 C 70 % 0 lf 1012,8 hPa 0,0 l/m 0 min 0 min 0 W/m 12,6 km/h (3 Bft)
02.06.2015 01:24 12,6 C 10,6 C 70 % 0 lf 1012,8 hPa 0,0 l/m 0 min 0 min 0 W/m 16,7 km/h (3 Bft)
02.06.2015 01:26 12,6 C 10,6 C 70 % 0 lf 1012,8 hPa 0,0 l/m 0 min 0 min 0 W/m 18,8 km/h (3 Bft)
02.06.2015 01:28 12,6 C 10,6 C 70 % 0 lf 1012,7 hPa 0,0 l/m 0 min 0 min 0 W/m 10,5 km/h (2 Bft)
02.06.2015 01:30 12,6 C 10,6 C 70 % 0 lf 1012,8 hPa 0,0 l/m 0 min 0 min 0 W/m 25,1 km/h (4 Bft)
02.06.2015 01:32 12,6 C 11,1 C 70 % 0 lf 1012,8 hPa 0,0 l/m 0 min 0 min 0 W/m 18,8 km/h (3 Bft)
02.06.2015 01:34 12,6 C 11,1 C 70 % 0 lf 1012,8 hPa 0,0 l/m 0 min 0 min 0 W/m 18,8 km/h (3 Bft)
02.06.2015 01:36 12,6 C 11,1 C 70 % 0 lf 1012,8 hPa 0,0 l/m 0 min 0 min 0 W/m 14,6 km/h (3 Bft)
02.06.2015 01:38 12,6 C 11,1 C 70 % 0 lf 1012,8 hPa 0,0 l/m 0 min 0 min 0 W/m 14,6 km/h (3 Bft)
02.06.2015 01:40 12,6 C 11,1 C 70 % 0 lf 1012,8 hPa 0,0 l/m 0 min 0 min 0 W/m 14,6 km/h (3 Bft)
02.06.2015 01:42 12,6 C 11,1 C 70 % 0 lf 1012,8 hPa 0,0 l/m 0 min 0 min 0 W/m 25,1 km/h (4 Bft)
02.06.2015 01:44 12,6 C 11,1 C 70 % 0 lf 1012,8 hPa 0,0 l/m 0 min 0 min 0 W/m 16,7 km/h (3 Bft)
02.06.2015 01:46 12,6 C 11,1 C 70 % 0 lf 1012,8 hPa 0,0 l/m 0 min 0 min 0 W/m 20,9 km/h (4 Bft)
02.06.2015 01:48 12,6 C 11,1 C 70 % 0 lf 1012,7 hPa 0,0 l/m 0 min 0 min 0 W/m 18,8 km/h (3 Bft)
02.06.2015 01:50 12,6 C 11,1 C 70 % 0 lf 1012,7 hPa 0,0 l/m 0 min 0 min 0 W/m 18,8 km/h (3 Bft)
02.06.2015 01:52 12,6 C 11,1 C 70 % 0 lf 1012,8 hPa 0,0 l/m 0 min 0 min 0 W/m 20,9 km/h (4 Bft)
02.06.2015 01:54 12,6 C 11,1 C 70 % 0 lf 1012,7 hPa 0,0 l/m 0 min 0 min 0 W/m 18,8 km/h (3 Bft)
02.06.2015 01:56 12,6 C 11,1 C 70 % 0 lf 1012,7 hPa 0,0 l/m 0 min 0 min 0 W/m 20,9 km/h (4 Bft)
02.06.2015 01:58 12,7 C 11,1 C 70 % 0 lf 1012,7 hPa 0,0 l/m 0 min 0 min 0 W/m 23,0 km/h (4 Bft)
02.06.2015 02:00 12,7 C 11,1 C 70 % 0 lf 1012,7 hPa 0,0 l/m 0 min 0 min 0 W/m 18,8 km/h (3 Bft)
02.06.2015 02:02 12,7 C 10,6 C 70 % 0 lf 1012,6 hPa 0,0 l/m 0 min 0 min 0 W/m 18,8 km/h (3 Bft)
02.06.2015 02:04 12,7 C 10,6 C 70 % 0 lf 1012,6 hPa 0,0 l/m 0 min 0 min 0 W/m 16,7 km/h (3 Bft)
02.06.2015 02:06 12,7 C 10,6 C 70 % 0 lf 1012,5 hPa 0,0 l/m 0 min 0 min 0 W/m 23,0 km/h (4 Bft)
02.06.2015 02:08 12,7 C 10,6 C 70 % 0 lf 1012,6 hPa 0,0 l/m 0 min 0 min 0 W/m 16,7 km/h (3 Bft)
02.06.2015 02:10 12,7 C 11,1 C 70 % 0 lf 1012,5 hPa 0,0 l/m 0 min 0 min 0 W/m 16,7 km/h (3 Bft)
02.06.2015 02:12 12,7 C 11,1 C 70 % 0 lf 1012,5 hPa 0,0 l/m 0 min 0 min 0 W/m 14,6 km/h (3 Bft)
02.06.2015 02:14 12,7 C 11,1 C 70 % 0 lf 1012,6 hPa 0,0 l/m 0 min 0 min 0 W/m 29,3 km/h (5 Bft)
02.06.2015 02:16 12,7 C 11,1 C 70 % 0 lf 1012,5 hPa 0,0 l/m 0 min 0 min 0 W/m 20,9 km/h (4 Bft)
02.06.2015 02:18 12,7 C 11,1 C 70 % 0 lf 1012,5 hPa 0,0 l/m 0 min 0 min 0 W/m 16,7 km/h (3 Bft)
02.06.2015 02:20 12,7 C 11,1 C 71 % 0 lf 1012,5 hPa 0,0 l/m 0 min 0 min 0 W/m 16,7 km/h (3 Bft)
02.06.2015 02:22 12,7 C 11,1 C 71 % 0 lf 1012,4 hPa 0,0 l/m 0 min 0 min 0 W/m 16,7 km/h (3 Bft)
02.06.2015 02:24 12,7 C 11,1 C 71 % 0 lf 1012,4 hPa 0,0 l/m 0 min 0 min 0 W/m 16,7 km/h (3 Bft)
02.06.2015 02:26 12,7 C 11,1 C 71 % 0 lf 1012,3 hPa 0,0 l/m 0 min 0 min 0 W/m 18,8 km/h (3 Bft)
02.06.2015 02:28 12,7 C 11,1 C 71 % 0 lf 1012,3 hPa 0,0 l/m 0 min 0 min 0 W/m 18,8 km/h (3 Bft)
02.06.2015 02:30 12,7 C 11,1 C 71 % 0 lf 1012,3 hPa 0,0 l/m 0 min 0 min 0 W/m 16,7 km/h (3 Bft)
02.06.2015 02:32 12,7 C 11,1 C 71 % 0 lf 1012,3 hPa 0,0 l/m 0 min 0 min 0 W/m 14,6 km/h (3 Bft)
02.06.2015 02:34 12,7 C 11,1 C 71 % 0 lf 1012,2 hPa 0,0 l/m 0 min 0 min 0 W/m 14,6 km/h (3 Bft)
02.06.2015 02:36 12,7 C 11,1 C 71 % 0 lf 1012,3 hPa 0,0 l/m 0 min 0 min 0 W/m 16,7 km/h (3 Bft)
02.06.2015 02:38 12,7 C 11,1 C 71 % 0 lf 1012,2 hPa 0,0 l/m 0 min 0 min 0 W/m 14,6 km/h (3 Bft)
02.06.2015 02:40 12,6 C 11,1 C 71 % 0 lf 1012,2 hPa 0,0 l/m 0 min 0 min 0 W/m 25,1 km/h (4 Bft)
02.06.2015 02:42 12,6 C 11,1 C 71 % 0 lf 1012,2 hPa 0,0 l/m 0 min 0 min 0 W/m 18,8 km/h (3 Bft)
02.06.2015 02:44 12,6 C 11,1 C 71 % 0 lf 1012,1 hPa 0,0 l/m 0 min 0 min 0 W/m 14,6 km/h (3 Bft)
02.06.2015 02:46 12,6 C 11,1 C 71 % 0 lf 1012,2 hPa 0,0 l/m 0 min 0 min 0 W/m 27,2 km/h (4 Bft)
02.06.2015 02:48 12,6 C 11,1 C 71 % 0 lf 1012,1 hPa 0,0 l/m 0 min 0 min 0 W/m 14,6 km/h (3 Bft)
02.06.2015 02:50 12,6 C 11,1 C 71 % 0 lf 1012,1 hPa 0,0 l/m 0 min 0 min 0 W/m 25,1 km/h (4 Bft)
02.06.2015 02:52 12,6 C 11,1 C 72 % 0 lf 1012,0 hPa 0,0 l/m 0 min 0 min 0 W/m 20,9 km/h (4 Bft)
02.06.2015 02:54 12,6 C 11,1 C 72 % 0 lf 1012,0 hPa 0,0 l/m 0 min 0 min 0 W/m 25,1 km/h (4 Bft)
02.06.2015 02:56 12,6 C 11,1 C 72 % 0 lf 1012,0 hPa 0,0 l/m 0 min 0 min 0 W/m 18,8 km/h (3 Bft)
02.06.2015 02:58 12,6 C 11,1 C 72 % 0 lf 1011,9 hPa 0,0 l/m 0 min 0 min 0 W/m 18,8 km/h (3 Bft)
02.06.2015 03:00 12,6 C 11,1 C 72 % 0 lf 1011,9 hPa 0,0 l/m 0 min 0 min 0 W/m 18,8 km/h (3 Bft)
02.06.2015 03:02 12,6 C 11,1 C 72 % 0 lf 1011,9 hPa 0,0 l/m 0 min 0 min 0 W/m 14,6 km/h (3 Bft)
02.06.2015 03:04 12,6 C 11,1 C 72 % 0 lf 1011,8 hPa 0,0 l/m 0 min 0 min 0 W/m 14,6 km/h (3 Bft)
02.06.2015 03:06 12,6 C 11,1 C 72 % 0 lf 1011,9 hPa 0,0 l/m 0 min 0 min 0 W/m 16,7 km/h (3 Bft)
02.06.2015 03:08 12,6 C 11,1 C 72 % 0 lf 1011,9 hPa 0,0 l/m 0 min 0 min 0 W/m 16,7 km/h (3 Bft)
02.06.2015 03:10 12,5 C 11,1 C 72 % 0 lf 1011,9 hPa 0,0 l/m 0 min 0 min 0 W/m 16,7 km/h (3 Bft)
02.06.2015 03:12 12,5 C 11,1 C 72 % 0 lf 1011,7 hPa 0,0 l/m 0 min 0 min 0 W/m 16,7 km/h (3 Bft)
02.06.2015 03:14 12,5 C 10,6 C 72 % 0 lf 1011,7 hPa 0,0 l/m 0 min 0 min 0 W/m 14,6 km/h (3 Bft)
02.06.2015 03:16 12,5 C 10,6 C 73 % 0 lf 1011,6 hPa 0,0 l/m 0 min 0 min 0 W/m 20,9 km/h (4 Bft)
02.06.2015 03:18 12,5 C 10,6 C 73 % 0 lf 1011,8 hPa 0,0 l/m 0 min 0 min 0 W/m 16,7 km/h (3 Bft)
02.06.2015 03:20 12,5 C 10,6 C 73 % 0 lf 1011,6 hPa 0,0 l/m 0 min 0 min 0 W/m 18,8 km/h (3 Bft)
02.06.2015 03:22 12,5 C 10,6 C 73 % 0 lf 1011,7 hPa 0,0 l/m 0 min 0 min 0 W/m 20,9 km/h (4 Bft)
02.06.2015 03:24 12,4 C 10,6 C 73 % 0 lf 1011,6 hPa 0,0 l/m 0 min 0 min 0 W/m 18,8 km/h (3 Bft)
02.06.2015 03:26 12,4 C 10,6 C 73 % 0 lf 1011,6 hPa 0,0 l/m 0 min 0 min 0 W/m 23,0 km/h (4 Bft)
02.06.2015 03:28 12,4 C 10,6 C 73 % 0 lf 1011,6 hPa 0,0 l/m 0 min 0 min 0 W/m 16,7 km/h (3 Bft)
02.06.2015 03:30 12,4 C 10,6 C 73 % 0 lf 1011,6 hPa 0,0 l/m 0 min 0 min 0 W/m 20,9 km/h (4 Bft)
02.06.2015 03:32 12,4 C 10,6 C 73 % 0 lf 1011,5 hPa 0,0 l/m 0 min 0 min 0 W/m 16,7 km/h (3 Bft)
02.06.2015 03:34 12,4 C 10,6 C 74 % 0 lf 1011,6 hPa 0,0 l/m 0 min 0 min 0 W/m 16,7 km/h (3 Bft)
02.06.2015 03:36 12,4 C 10,6 C 74 % 0 lf 1011,5 hPa 0,0 l/m 0 min 0 min 0 W/m 20,9 km/h (4 Bft)
02.06.2015 03:38 12,4 C 10,6 C 74 % 0 lf 1011,6 hPa 0,0 l/m 0 min 0 min 0 W/m 18,8 km/h (3 Bft)
02.06.2015 03:40 12,3 C 10,6 C 74 % 0 lf 1011,5 hPa 0,0 l/m 0 min 0 min 0 W/m 18,8 km/h (3 Bft)
02.06.2015 03:42 12,3 C 10,6 C 74 % 0 lf 1011,4 hPa 0,0 l/m 0 min 0 min 0 W/m 16,7 km/h (3 Bft)
02.06.2015 03:44 12,3 C 10,6 C 74 % 0 lf 1011,3 hPa 0,0 l/m 0 min 0 min 0 W/m 14,6 km/h (3 Bft)
02.06.2015 03:46 12,3 C 10,6 C 74 % 0 lf 1011,3 hPa 0,0 l/m 0 min 0 min 0 W/m 16,7 km/h (3 Bft)
02.06.2015 03:48 12,3 C 10,6 C 74 % 0 lf 1011,3 hPa 0,0 l/m 0 min 0 min 0 W/m 16,7 km/h (3 Bft)
02.06.2015 03:50 12,3 C 10,6 C 74 % 0 lf 1011,3 hPa 0,0 l/m 0 min 0 min 0 W/m 16,7 km/h (3 Bft)
02.06.2015 03:52 12,3 C 10,6 C 75 % 0 lf 1011,2 hPa 0,0 l/m 0 min 0 min 0 W/m 18,8 km/h (3 Bft)
02.06.2015 03:54 12,2 C 10,6 C 75 % 0 lf 1011,1 hPa 0,0 l/m 0 min 0 min 0 W/m 14,6 km/h (3 Bft)
02.06.2015 03:56 12,2 C 10,6 C 75 % 0 lf 1011,1 hPa 0,0 l/m 0 min 0 min 0 W/m 14,6 km/h (3 Bft)
02.06.2015 03:58 12,2 C 10,6 C 75 % 0 lf 1011,1 hPa 0,0 l/m 0 min 0 min 0 W/m 14,6 km/h (3 Bft)
02.06.2015 04:00 12,2 C 10,6 C 75 % 0 lf 1011,1 hPa 0,0 l/m 0 min 0 min 0 W/m 20,9 km/h (4 Bft)
02.06.2015 04:02 12,2 C 10,6 C 75 % 0 lf 1011,1 hPa 0,0 l/m 0 min 0 min 0 W/m 18,8 km/h (3 Bft)
02.06.2015 04:04 12,1 C 10,6 C 75 % 0 lf 1011,1 hPa 0,0 l/m 0 min 0 min 0 W/m 14,6 km/h (3 Bft)
02.06.2015 04:06 12,1 C 10,6 C 75 % 0 lf 1011,1 hPa 0,0 l/m 0 min 0 min 0 W/m 18,8 km/h (3 Bft)
02.06.2015 04:08 12,1 C 10,6 C 76 % 0 lf 1011,0 hPa 0,0 l/m 0 min 0 min 0 W/m 14,6 km/h (3 Bft)
02.06.2015 04:10 12,1 C 10,6 C 76 % 0 lf 1011,1 hPa 0,0 l/m 0 min 0 min 0 W/m 18,8 km/h (3 Bft)
02.06.2015 04:12 12,1 C 10,6 C 76 % 0 lf 1011,0 hPa 0,0 l/m 0 min 0 min 0 W/m 18,8 km/h (3 Bft)
02.06.2015 04:14 12,0 C 10,6 C 76 % 0 lf 1010,9 hPa 0,0 l/m 0 min 0 min 0 W/m 14,6 km/h (3 Bft)
02.06.2015 04:16 12,0 C 10,6 C 76 % 0 lf 1010,9 hPa 0,0 l/m 0 min 0 min 0 W/m 16,7 km/h (3 Bft)
02.06.2015 04:18 12,0 C 10,6 C 76 % 0 lf 1010,8 hPa 0,0 l/m 0 min 0 min 0 W/m 14,6 km/h (3 Bft)
02.06.2015 04:20 11,9 C 10,6 C 76 % 0 lf 1010,8 hPa 0,0 l/m 0 min 0 min 0 W/m 16,7 km/h (3 Bft)
02.06.2015 04:22 11,9 C 10,6 C 76 % 0 lf 1010,8 hPa 0,0 l/m 0 min 0 min 0 W/m 14,6 km/h (3 Bft)
02.06.2015 04:24 11,9 C 10,6 C 76 % 0 lf 1010,8 hPa 0,0 l/m 0 min 0 min 0 W/m 16,7 km/h (3 Bft)
02.06.2015 04:26 11,9 C 10,6 C 76 % 0 lf 1010,8 hPa 0,0 l/m 0 min 0 min 0 W/m 20,9 km/h (4 Bft)
02.06.2015 04:28 11,9 C 10,6 C 76 % 0 lf 1010,8 hPa 0,0 l/m 0 min 0 min 0 W/m 16,7 km/h (3 Bft)
02.06.2015 04:30 11,9 C 10,6 C 77 % 0 lf 1010,7 hPa 0,0 l/m 0 min 0 min 0 W/m 14,6 km/h (3 Bft)
02.06.2015 04:32 11,9 C 10,6 C 77 % 0 lf 1010,7 hPa 0,0 l/m 0 min 0 min 0 W/m 25,1 km/h (4 Bft)
02.06.2015 04:34 11,9 C 10,6 C 77 % 1 lf 1010,7 hPa 0,0 l/m 0 min 0 min 0 W/m 14,6 km/h (3 Bft)
02.06.2015 04:36 11,9 C 10,6 C 77 % 0 lf 1010,7 hPa 0,0 l/m 0 min 0 min 0 W/m 14,6 km/h (3 Bft)
02.06.2015 04:38 11,9 C 10,6 C 77 % 1 lf 1010,8 hPa 0,0 l/m 0 min 2 min 0 W/m 14,6 km/h (3 Bft)
02.06.2015 04:40 11,9 C 10,6 C 77 % 0 lf 1010,8 hPa 0,0 l/m 0 min 2 min 0 W/m 14,6 km/h (3 Bft)
02.06.2015 04:42 11,9 C 10,6 C 77 % 0 lf 1010,7 hPa 0,0 l/m 0 min 0 min 0 W/m 25,1 km/h (4 Bft)
02.06.2015 04:44 11,9 C 10,6 C 77 % 0 lf 1010,7 hPa 0,0 l/m 0 min 0 min 0 W/m 16,7 km/h (3 Bft)
02.06.2015 04:46 11,9 C 10,6 C 77 % 0 lf 1010,7 hPa 0,0 l/m 0 min 0 min 0 W/m 14,6 km/h (3 Bft)
02.06.2015 04:48 11,9 C 10,6 C 78 % 0 lf 1010,8 hPa 0,0 l/m 0 min 0 min 0 W/m 20,9 km/h (4 Bft)
02.06.2015 04:50 11,9 C 10,6 C 77 % 0 lf 1010,7 hPa 0,0 l/m 0 min 0 min 0 W/m 18,8 km/h (3 Bft)
02.06.2015 04:52 11,9 C 10,6 C 78 % 0 lf 1010,6 hPa 0,0 l/m 0 min 0 min 0 W/m 16,7 km/h (3 Bft)
02.06.2015 04:54 12,0 C 10,6 C 78 % 0 lf 1010,6 hPa 0,0 l/m 0 min 0 min 0 W/m 14,6 km/h (3 Bft)
02.06.2015 04:56 12,0 C 10,6 C 78 % 0 lf 1010,6 hPa 0,0 l/m 0 min 0 min 0 W/m 20,9 km/h (4 Bft)
02.06.2015 04:58 12,0 C 10,6 C 78 % 0 lf 1010,6 hPa 0,0 l/m 0 min 0 min 0 W/m 31,4 km/h (5 Bft)
02.06.2015 05:00 12,1 C 10,6 C 78 % 0 lf 1010,6 hPa 0,0 l/m 0 min 0 min 0 W/m 18,8 km/h (3 Bft)
02.06.2015 05:02 12,1 C 10,6 C 78 % 2 lf 1010,6 hPa 0,0 l/m 0 min 2 min 0 W/m 16,7 km/h (3 Bft)
02.06.2015 05:04 12,1 C 10,6 C 78 % 1 lf 1010,5 hPa 0,0 l/m 0 min 2 min 0 W/m 20,9 km/h (4 Bft)
02.06.2015 05:06 12,1 C 10,6 C 79 % 1 lf 1010,5 hPa 0,0 l/m 0 min 2 min 0 W/m 20,9 km/h (4 Bft)
02.06.2015 05:08 12,1 C 10,0 C 79 % 2 lf 1010,5 hPa 0,0 l/m 0 min 2 min 0 W/m 16,7 km/h (3 Bft)
02.06.2015 05:10 12,2 C 10,0 C 80 % 2 lf 1010,4 hPa 0,0 l/m 0 min 2 min 0 W/m 14,6 km/h (3 Bft)
02.06.2015 05:12 12,2 C 10,0 C 80 % 0 lf 1010,5 hPa 0,0 l/m 0 min 2 min 0 W/m 14,6 km/h (3 Bft)
02.06.2015 05:14 12,2 C 10,0 C 80 % 2 lf 1010,5 hPa 0,0 l/m 0 min 2 min 0 W/m 12,6 km/h (3 Bft)
02.06.2015 05:16 12,2 C 10,0 C 81 % 1 lf 1010,5 hPa 0,2 l/m 0 min 2 min 0 W/m 14,6 km/h (3 Bft)
02.06.2015 05:18 12,2 C 10,0 C 81 % 1 lf 1010,5 hPa 0,0 l/m 0 min 2 min 0 W/m 14,6 km/h (3 Bft)
02.06.2015 05:20 12,1 C 10,0 C 82 % 4 lf 1010,5 hPa 0,0 l/m 0 min 2 min 0 W/m 16,7 km/h (3 Bft)
02.06.2015 05:22 12,1 C 10,0 C 82 % 9 lf 1010,4 hPa 0,0 l/m 0 min 2 min 0 W/m 16,7 km/h (3 Bft)
02.06.2015 05:24 12,1 C 10,0 C 82 % 9 lf 1010,4 hPa 0,0 l/m 0 min 2 min 0 W/m 14,6 km/h (3 Bft)
02.06.2015 05:26 12,1 C 10,0 C 83 % 14 lf 1010,4 hPa 0,0 l/m 0 min 2 min 4 W/m 8,4 km/h (2 Bft)
02.06.2015 05:28 12,0 C 10,0 C 83 % 15 lf 1010,4 hPa 0,0 l/m 0 min 2 min 5 W/m 14,6 km/h (3 Bft)
02.06.2015 05:30 12,0 C 10,0 C 83 % 15 lf 1010,4 hPa 0,0 l/m 0 min 2 min 5 W/m 12,6 km/h (3 Bft)
02.06.2015 05:32 11,9 C 10,0 C 84 % 15 lf 1010,4 hPa 0,0 l/m 0 min 2 min 7 W/m 16,7 km/h (3 Bft)
02.06.2015 05:34 11,9 C 10,0 C 84 % 15 lf 1010,4 hPa 0,0 l/m 0 min 2 min 7 W/m 12,6 km/h (3 Bft)
02.06.2015 05:36 11,9 C 10,0 C 84 % 15 lf 1010,3 hPa 0,0 l/m 0 min 2 min 7 W/m 12,6 km/h (3 Bft)
02.06.2015 05:38 11,9 C 10,0 C 84 % 15 lf 1010,3 hPa 0,0 l/m 0 min 2 min 7 W/m 12,6 km/h (3 Bft)
02.06.2015 05:40 11,8 C 10,0 C 85 % 15 lf 1010,3 hPa 0,0 l/m 0 min 2 min 7 W/m 14,6 km/h (3 Bft)
02.06.2015 05:42 11,8 C 10,0 C 85 % 15 lf 1010,4 hPa 0,0 l/m 0 min 2 min 7 W/m 14,6 km/h (3 Bft)
02.06.2015 05:44 11,8 C 10,0 C 85 % 15 lf 1010,4 hPa 0,0 l/m 0 min 2 min 7 W/m 14,6 km/h (3 Bft)
02.06.2015 05:46 11,7 C 10,0 C 85 % 15 lf 1010,4 hPa 0,2 l/m 0 min 2 min 5 W/m 14,6 km/h (3 Bft)
02.06.2015 05:48 11,7 C 10,0 C 85 % 14 lf 1010,3 hPa 0,0 l/m 0 min 2 min 5 W/m 12,6 km/h (3 Bft)
02.06.2015 05:50 11,7 C 10,0 C 86 % 14 lf 1010,4 hPa 0,0 l/m 0 min 2 min 6 W/m 14,6 km/h (3 Bft)
02.06.2015 05:52 11,7 C 10,0 C 86 % 14 lf 1010,5 hPa 0,0 l/m 0 min 2 min 7 W/m 14,6 km/h (3 Bft)
02.06.2015 05:54 11,7 C 10,0 C 86 % 14 lf 1010,4 hPa 0,0 l/m 0 min 2 min 7 W/m 14,6 km/h (3 Bft)
02.06.2015 05:56 11,6 C 10,0 C 87 % 14 lf 1010,4 hPa 0,0 l/m 0 min 2 min 7 W/m 12,6 km/h (3 Bft)
02.06.2015 05:58 11,6 C 10,0 C 87 % 13 lf 1010,4 hPa 0,0 l/m 0 min 2 min 7 W/m 12,6 km/h (3 Bft)
02.06.2015 06:00 11,6 C 10,0 C 87 % 13 lf 1010,5 hPa 0,0 l/m 0 min 2 min 7 W/m 14,6 km/h (3 Bft)
02.06.2015 06:02 11,6 C 10,0 C 87 % 13 lf 1010,5 hPa 0,0 l/m 0 min 2 min 9 W/m 10,5 km/h (2 Bft)
02.06.2015 06:06 11,6 C 10,0 C 87 % 13 lf 1010,4 hPa 0,0 l/m 0 min 2 min 10 W/m 16,7 km/h (3 Bft)
02.06.2015 06:08 11,6 C 10,0 C 88 % 12 lf 1010,3 hPa 0,0 l/m 0 min 2 min 14 W/m 14,6 km/h (3 Bft)
02.06.2015 06:10 11,6 C 10,0 C 88 % 12 lf 1010,4 hPa 0,0 l/m 0 min 2 min 19 W/m 16,7 km/h (3 Bft)
02.06.2015 06:12 11,6 C 10,0 C 88 % 12 lf 1010,3 hPa 0,0 l/m 0 min 2 min 23 W/m 16,7 km/h (3 Bft)
02.06.2015 06:14 11,6 C 10,0 C 88 % 12 lf 1010,4 hPa 0,0 l/m 0 min 2 min 28 W/m 16,7 km/h (3 Bft)
02.06.2015 06:16 11,6 C 10,0 C 88 % 12 lf 1010,5 hPa 0,0 l/m 0 min 2 min 30 W/m 16,7 km/h (3 Bft)
02.06.2015 06:18 11,6 C 10,0 C 89 % 12 lf 1010,5 hPa 0,0 l/m 0 min 2 min 30 W/m 16,7 km/h (3 Bft)
02.06.2015 06:20 11,6 C 10,0 C 89 % 12 lf 1010,5 hPa 0,0 l/m 0 min 2 min 30 W/m 14,6 km/h (3 Bft)
02.06.2015 06:22 11,6 C 10,0 C 89 % 10 lf 1010,5 hPa 0,0 l/m 0 min 2 min 32 W/m 14,6 km/h (3 Bft)
02.06.2015 06:24 11,6 C 10,6 C 89 % 9 lf 1010,5 hPa 0,0 l/m 0 min 2 min 34 W/m 16,7 km/h (3 Bft)
02.06.2015 06:26 11,7 C 10,0 C 89 % 12 lf 1010,5 hPa 0,0 l/m 0 min 2 min 37 W/m 23,0 km/h (4 Bft)
02.06.2015 06:28 11,7 C 10,0 C 89 % 12 lf 1010,3 hPa 0,0 l/m 0 min 2 min 38 W/m 16,7 km/h (3 Bft)
02.06.2015 06:30 11,7 C 10,0 C 89 % 12 lf 1010,4 hPa 0,0 l/m 0 min 2 min 39 W/m 25,1 km/h (4 Bft)
02.06.2015 06:32 11,7 C 10,6 C 89 % 10 lf 1010,5 hPa 0,0 l/m 0 min 2 min 39 W/m 18,8 km/h (3 Bft)
02.06.2015 06:34 11,8 C 10,6 C 89 % 10 lf 1010,5 hPa 0,0 l/m 0 min 2 min 40 W/m 16,7 km/h (3 Bft)
02.06.2015 06:36 11,8 C 10,6 C 89 % 7 lf 1010,5 hPa 0,0 l/m 0 min 2 min 42 W/m 20,9 km/h (4 Bft)
02.06.2015 06:38 11,8 C 10,6 C 89 % 6 lf 1010,5 hPa 0,0 l/m 0 min 2 min 40 W/m 18,8 km/h (3 Bft)
02.06.2015 06:40 11,9 C 10,6 C 89 % 4 lf 1010,5 hPa 0,0 l/m 0 min 2 min 38 W/m 18,8 km/h (3 Bft)
02.06.2015 06:42 11,9 C 10,6 C 89 % 4 lf 1010,5 hPa 0,0 l/m 0 min 2 min 36 W/m 18,8 km/h (3 Bft)
02.06.2015 06:44 11,9 C 10,6 C 89 % 3 lf 1010,5 hPa 0,0 l/m 0 min 2 min 35 W/m 14,6 km/h (3 Bft)
02.06.2015 06:46 12,0 C 10,6 C 89 % 1 lf 1010,5 hPa 0,0 l/m 0 min 2 min 35 W/m 18,8 km/h (3 Bft)
02.06.2015 06:48 12,0 C 10,6 C 89 % 1 lf 1010,4 hPa 0,0 l/m 0 min 2 min 34 W/m 25,1 km/h (4 Bft)
02.06.2015 06:50 12,0 C 10,6 C 89 % 1 lf 1010,4 hPa 0,0 l/m 0 min 2 min 38 W/m 18,8 km/h (3 Bft)
02.06.2015 06:52 12,1 C 10,6 C 89 % 0 lf 1010,4 hPa 0,0 l/m 0 min 2 min 40 W/m 18,8 km/h (3 Bft)
02.06.2015 06:54 12,1 C 10,6 C 89 % 0 lf 1010,4 hPa 0,0 l/m 0 min 2 min 42 W/m 18,8 km/h (3 Bft)
02.06.2015 06:56 12,1 C 10,6 C 89 % 2 lf 1010,4 hPa 0,0 l/m 0 min 2 min 45 W/m 18,8 km/h (3 Bft)
02.06.2015 06:58 12,1 C 10,6 C 88 % 2 lf 1010,4 hPa 0,0 l/m 0 min 2 min 47 W/m 14,6 km/h (3 Bft)
02.06.2015 07:00 12,1 C 10,6 C 88 % 3 lf 1010,3 hPa 0,0 l/m 0 min 2 min 47 W/m 25,1 km/h (4 Bft)
02.06.2015 07:02 12,2 C 10,6 C 88 % 5 lf 1010,2 hPa 0,0 l/m 0 min 2 min 43 W/m 12,6 km/h (3 Bft)
02.06.2015 07:04 12,2 C 10,6 C 88 % 15 lf 1010,3 hPa 0,2 l/m 0 min 2 min 39 W/m 18,8 km/h (3 Bft)
02.06.2015 07:06 12,2 C 10,6 C 88 % 15 lf 1010,3 hPa 0,0 l/m 0 min 2 min 39 W/m 20,9 km/h (4 Bft)
02.06.2015 07:08 12,2 C 10,6 C 88 % 15 lf 1010,3 hPa 0,0 l/m 0 min 2 min 39 W/m 18,8 km/h (3 Bft)
02.06.2015 07:10 12,2 C 10,6 C 88 % 15 lf 1010,4 hPa 0,0 l/m 0 min 2 min 40 W/m 29,3 km/h (5 Bft)
02.06.2015 07:12 12,2 C 10,6 C 88 % 15 lf 1010,4 hPa 0,0 l/m 0 min 2 min 43 W/m 27,2 km/h (4 Bft)
02.06.2015 07:14 12,2 C 10,6 C 88 % 15 lf 1010,4 hPa 0,0 l/m 0 min 2 min 46 W/m 27,2 km/h (4 Bft)
02.06.2015 07:16 12,2 C 10,6 C 88 % 15 lf 1010,4 hPa 0,0 l/m 0 min 2 min 51 W/m 14,6 km/h (3 Bft)
02.06.2015 07:18 12,3 C 10,6 C 88 % 15 lf 1010,2 hPa 0,0 l/m 0 min 2 min 57 W/m 20,9 km/h (4 Bft)
02.06.2015 07:20 12,3 C 10,6 C 88 % 15 lf 1010,3 hPa 0,0 l/m 0 min 2 min 63 W/m 23,0 km/h (4 Bft)
02.06.2015 07:22 12,3 C 10,6 C 88 % 15 lf 1010,4 hPa 0,0 l/m 0 min 2 min 68 W/m 18,8 km/h (3 Bft)
02.06.2015 07:24 12,3 C 10,6 C 88 % 15 lf 1010,4 hPa 0,0 l/m 0 min 2 min 69 W/m 27,2 km/h (4 Bft)
02.06.2015 07:26 12,3 C 10,6 C 88 % 15 lf 1010,4 hPa 0,0 l/m 0 min 2 min 70 W/m 31,4 km/h (5 Bft)
02.06.2015 07:28 12,3 C 10,6 C 88 % 14 lf 1010,4 hPa 0,0 l/m 0 min 0 min 73 W/m 14,6 km/h (3 Bft)
02.06.2015 07:30 12,3 C 10,6 C 88 % 13 lf 1010,4 hPa 0,0 l/m 0 min 0 min 76 W/m 25,1 km/h (4 Bft)
02.06.2015 07:32 12,3 C 10,6 C 88 % 12 lf 1010,4 hPa 0,0 l/m 0 min 0 min 79 W/m 23,0 km/h (4 Bft)
02.06.2015 07:34 12,3 C 10,6 C 88 % 6 lf 1010,4 hPa 0,0 l/m 0 min 0 min 83 W/m 27,2 km/h (4 Bft)
02.06.2015 07:36 12,3 C 10,6 C 88 % 3 lf 1010,4 hPa 0,0 l/m 0 min 0 min 90 W/m 20,9 km/h (4 Bft)
02.06.2015 07:38 12,4 C 10,6 C 88 % 1 lf 1010,4 hPa 0,0 l/m 0 min 0 min 99 W/m 35,6 km/h (5 Bft)
02.06.2015 07:40 12,4 C 10,6 C 88 % 0 lf 1010,5 hPa 0,0 l/m 0 min 0 min 104 W/m 14,6 km/h (3 Bft)
02.06.2015 07:42 12,4 C 10,6 C 88 % 0 lf 1010,4 hPa 0,0 l/m 0 min 0 min 111 W/m 20,9 km/h (4 Bft)
02.06.2015 07:44 12,4 C 10,6 C 88 % 0 lf 1010,4 hPa 0,0 l/m 0 min 0 min 116 W/m 25,1 km/h (4 Bft)
02.06.2015 07:46 12,4 C 10,6 C 88 % 0 lf 1010,4 hPa 0,0 l/m 0 min 0 min 120 W/m 31,4 km/h (5 Bft)
02.06.2015 07:48 12,4 C 10,6 C 87 % 0 lf 1010,4 hPa 0,0 l/m 0 min 0 min 122 W/m 18,8 km/h (3 Bft)
02.06.2015 07:50 12,4 C 10,6 C 87 % 0 lf 1010,4 hPa 0,0 l/m 0 min 0 min 123 W/m 23,0 km/h (4 Bft)
02.06.2015 07:52 12,5 C 10,6 C 87 % 0 lf 1010,4 hPa 0,0 l/m 0 min 0 min 121 W/m 23,0 km/h (4 Bft)
02.06.2015 07:54 12,5 C 10,6 C 87 % 0 lf 1010,4 hPa 0,0 l/m 0 min 0 min 121 W/m 20,9 km/h (4 Bft)
02.06.2015 07:56 12,6 C 11,1 C 87 % 0 lf 1010,4 hPa 0,0 l/m 0 min 0 min 121 W/m 18,8 km/h (3 Bft)
02.06.2015 07:58 12,6 C 11,1 C 86 % 0 lf 1010,4 hPa 0,0 l/m 0 min 0 min 120 W/m 25,1 km/h (4 Bft)
02.06.2015 08:00 12,6 C 11,1 C 86 % 0 lf 1010,4 hPa 0,0 l/m 0 min 0 min 118 W/m 31,4 km/h (5 Bft)
02.06.2015 08:02 12,7 C 11,1 C 86 % 0 lf 1010,4 hPa 0,0 l/m 0 min 0 min 112 W/m 25,1 km/h (4 Bft)
02.06.2015 08:04 12,7 C 11,1 C 85 % 0 lf 1010,2 hPa 0,0 l/m 0 min 0 min 108 W/m 23,0 km/h (4 Bft)
02.06.2015 08:06 12,7 C 11,1 C 85 % 0 lf 1010,3 hPa 0,0 l/m 0 min 0 min 101 W/m 20,9 km/h (4 Bft)
02.06.2015 08:08 12,8 C 11,1 C 85 % 0 lf 1010,3 hPa 0,0 l/m 0 min 0 min 100 W/m 33,5 km/h (5 Bft)
02.06.2015 08:10 12,8 C 11,1 C 84 % 0 lf 1010,2 hPa 0,0 l/m 0 min 0 min 99 W/m 23,0 km/h (4 Bft)
02.06.2015 08:12 12,8 C 11,1 C 84 % 0 lf 1010,2 hPa 0,0 l/m 0 min 0 min 100 W/m 29,3 km/h (5 Bft)
02.06.2015 08:14 12,9 C 11,1 C 84 % 0 lf 1010,3 hPa 0,0 l/m 0 min 0 min 101 W/m 29,3 km/h (5 Bft)
02.06.2015 08:16 12,9 C 11,1 C 84 % 0 lf 1010,4 hPa 0,0 l/m 0 min 0 min 104 W/m 23,0 km/h (4 Bft)
02.06.2015 08:18 12,9 C 11,1 C 84 % 0 lf 1010,4 hPa 0,0 l/m 0 min 0 min 108 W/m 23,0 km/h (4 Bft)
02.06.2015 08:20 12,9 C 11,1 C 84 % 0 lf 1010,4 hPa 0,0 l/m 0 min 0 min 105 W/m 25,1 km/h (4 Bft)
02.06.2015 08:22 13,0 C 11,7 C 83 % 0 lf 1010,4 hPa 0,0 l/m 0 min 0 min 101 W/m 18,8 km/h (3 Bft)
02.06.2015 08:24 13,0 C 11,7 C 83 % 0 lf 1010,3 hPa 0,0 l/m 0 min 0 min 98 W/m 25,1 km/h (4 Bft)
02.06.2015 08:26 13,1 C 11,1 C 83 % 0 lf 1010,3 hPa 0,0 l/m 0 min 0 min 102 W/m 23,0 km/h (4 Bft)
02.06.2015 08:28 13,1 C 11,1 C 83 % 0 lf 1010,3 hPa 0,0 l/m 0 min 0 min 108 W/m 16,7 km/h (3 Bft)
02.06.2015 08:30 13,1 C 11,1 C 83 % 0 lf 1010,2 hPa 0,0 l/m 0 min 0 min 119 W/m 18,8 km/h (3 Bft)
02.06.2015 08:32 13,1 C 11,7 C 83 % 0 lf 1010,4 hPa 0,0 l/m 0 min 0 min 140 W/m 18,8 km/h (3 Bft)
02.06.2015 08:34 13,2 C 11,7 C 83 % 0 lf 1010,2 hPa 0,0 l/m 0 min 0 min 153 W/m 29,3 km/h (5 Bft)
02.06.2015 08:36 13,2 C 11,7 C 82 % 0 lf 1010,2 hPa 0,0 l/m 0 min 0 min 156 W/m 20,9 km/h (4 Bft)
02.06.2015 08:38 13,2 C 11,7 C 82 % 0 lf 1010,3 hPa 0,0 l/m 0 min 0 min 167 W/m 20,9 km/h (4 Bft)
02.06.2015 08:40 13,3 C 11,7 C 82 % 0 lf 1010,2 hPa 0,0 l/m 0 min 0 min 168 W/m 23,0 km/h (4 Bft)
02.06.2015 08:42 13,3 C 11,7 C 82 % 0 lf 1010,4 hPa 0,0 l/m 0 min 0 min 150 W/m 20,9 km/h (4 Bft)
02.06.2015 08:44 13,3 C 11,7 C 82 % 0 lf 1010,1 hPa 0,0 l/m 0 min 0 min 130 W/m 18,8 km/h (3 Bft)
02.06.2015 08:46 13,4 C 11,7 C 82 % 0 lf 1010,2 hPa 0,0 l/m 0 min 0 min 123 W/m 25,1 km/h (4 Bft)
02.06.2015 08:48 13,4 C 11,7 C 81 % 0 lf 1010,2 hPa 0,0 l/m 0 min 0 min 118 W/m 23,0 km/h (4 Bft)
02.06.2015 08:50 13,5 C 11,7 C 81 % 0 lf 1010,3 hPa 0,0 l/m 0 min 0 min 120 W/m 23,0 km/h (4 Bft)
02.06.2015 08:52 13,5 C 11,7 C 81 % 0 lf 1010,2 hPa 0,0 l/m 0 min 0 min 141 W/m 23,0 km/h (4 Bft)
02.06.2015 08:54 13,6 C 12,2 C 80 % 0 lf 1010,4 hPa 0,0 l/m 0 min 0 min 153 W/m 18,8 km/h (3 Bft)
02.06.2015 08:56 13,6 C 12,2 C 80 % 0 lf 1010,3 hPa 0,0 l/m 0 min 0 min 176 W/m 16,7 km/h (3 Bft)
02.06.2015 08:58 13,6 C 12,2 C 80 % 0 lf 1010,3 hPa 0,0 l/m 0 min 0 min 205 W/m 31,4 km/h (5 Bft)
02.06.2015 09:00 13,7 C 12,2 C 80 % 0 lf 1010,3 hPa 0,0 l/m 0 min 0 min 172 W/m 31,4 km/h (5 Bft)
02.06.2015 09:02 13,7 C 12,2 C 80 % 0 lf 1010,4 hPa 0,0 l/m 0 min 0 min 159 W/m 18,8 km/h (3 Bft)
02.06.2015 09:04 13,8 C 12,2 C 79 % 0 lf 1010,4 hPa 0,0 l/m 0 min 0 min 167 W/m 25,1 km/h (4 Bft)
02.06.2015 09:06 13,8 C 12,2 C 79 % 0 lf 1010,4 hPa 0,0 l/m 0 min 0 min 216 W/m 33,5 km/h (5 Bft)
02.06.2015 09:08 13,9 C 12,2 C 78 % 0 lf 1010,4 hPa 0,0 l/m 0 min 0 min 221 W/m 25,1 km/h (4 Bft)
02.06.2015 09:10 13,9 C 12,2 C 78 % 0 lf 1010,4 hPa 0,0 l/m 0 min 0 min 186 W/m 29,3 km/h (5 Bft)
02.06.2015 09:12 14,0 C 12,2 C 77 % 0 lf 1010,4 hPa 0,0 l/m 0 min 0 min 174 W/m 31,4 km/h (5 Bft)
02.06.2015 09:14 14,1 C 12,2 C 77 % 0 lf 1010,4 hPa 0,0 l/m 0 min 0 min 155 W/m 27,2 km/h (4 Bft)
02.06.2015 09:16 14,1 C 12,2 C 76 % 0 lf 1010,4 hPa 0,0 l/m 0 min 0 min 154 W/m 31,4 km/h (5 Bft)
02.06.2015 09:18 14,2 C 12,2 C 76 % 0 lf 1010,4 hPa 0,0 l/m 0 min 0 min 164 W/m 18,8 km/h (3 Bft)
02.06.2015 09:20 14,2 C 12,2 C 76 % 0 lf 1010,4 hPa 0,0 l/m 0 min 0 min 168 W/m 27,2 km/h (4 Bft)
02.06.2015 09:22 14,2 C 12,2 C 75 % 0 lf 1010,3 hPa 0,0 l/m 0 min 0 min 164 W/m 35,6 km/h (5 Bft)
02.06.2015 09:24 14,2 C 12,2 C 75 % 0 lf 1010,3 hPa 0,0 l/m 0 min 0 min 152 W/m 18,8 km/h (3 Bft)
02.06.2015 09:26 14,2 C 12,2 C 75 % 0 lf 1010,4 hPa 0,0 l/m 0 min 0 min 143 W/m 25,1 km/h (4 Bft)
02.06.2015 09:28 14,2 C 12,2 C 75 % 0 lf 1010,4 hPa 0,0 l/m 0 min 0 min 119 W/m 20,9 km/h (4 Bft)
02.06.2015 09:30 14,2 C 12,2 C 74 % 0 lf 1010,4 hPa 0,0 l/m 0 min 0 min 92 W/m 29,3 km/h (5 Bft)
02.06.2015 09:32 14,2 C 12,2 C 74 % 0 lf 1010,4 hPa 0,0 l/m 0 min 0 min 90 W/m 20,9 km/h (4 Bft)
02.06.2015 09:34 14,2 C 12,2 C 74 % 0 lf 1010,5 hPa 0,0 l/m 0 min 0 min 105 W/m 25,1 km/h (4 Bft)
02.06.2015 09:36 14,3 C 12,2 C 74 % 0 lf 1010,5 hPa 0,0 l/m 0 min 0 min 128 W/m 25,1 km/h (4 Bft)
02.06.2015 09:38 14,3 C 12,2 C 74 % 0 lf 1010,4 hPa 0,0 l/m 0 min 0 min 131 W/m 16,7 km/h (3 Bft)
02.06.2015 09:40 14,3 C 12,2 C 75 % 0 lf 1010,5 hPa 0,0 l/m 0 min 0 min 143 W/m 16,7 km/h (3 Bft)
02.06.2015 09:42 14,3 C 12,8 C 75 % 0 lf 1010,4 hPa 0,0 l/m 0 min 0 min 165 W/m 25,1 km/h (4 Bft)
02.06.2015 09:44 14,4 C 12,8 C 73 % 0 lf 1010,5 hPa 0,0 l/m 0 min 0 min 203 W/m 20,9 km/h (4 Bft)
02.06.2015 09:46 14,4 C 12,8 C 74 % 0 lf 1010,5 hPa 0,0 l/m 0 min 0 min 239 W/m 33,5 km/h (5 Bft)
02.06.2015 09:48 14,4 C 12,8 C 73 % 0 lf 1010,5 hPa 0,0 l/m 0 min 0 min 199 W/m 27,2 km/h (4 Bft)
02.06.2015 09:50 14,5 C 12,8 C 74 % 0 lf 1010,4 hPa 0,0 l/m 0 min 0 min 174 W/m 29,3 km/h (5 Bft)
02.06.2015 09:52 14,6 C 12,8 C 73 % 0 lf 1010,5 hPa 0,0 l/m 0 min 0 min 189 W/m 27,2 km/h (4 Bft)
02.06.2015 09:54 14,6 C 12,8 C 74 % 0 lf 1010,5 hPa 0,0 l/m 0 min 0 min 212 W/m 27,2 km/h (4 Bft)
02.06.2015 09:56 14,7 C 12,8 C 73 % 0 lf 1010,4 hPa 0,0 l/m 0 min 0 min 256 W/m 20,9 km/h (4 Bft)
02.06.2015 09:58 14,7 C 13,3 C 74 % 0 lf 1010,5 hPa 0,0 l/m 0 min 0 min 288 W/m 35,6 km/h (5 Bft)
02.06.2015 10:00 14,8 C 13,3 C 73 % 0 lf 1010,5 hPa 0,0 l/m 0 min 0 min 308 W/m 29,3 km/h (5 Bft)
02.06.2015 10:02 14,9 C 13,3 C 73 % 0 lf 1010,5 hPa 0,0 l/m 0 min 0 min 258 W/m 25,1 km/h (4 Bft)
02.06.2015 10:04 15,0 C 13,3 C 73 % 0 lf 1010,5 hPa 0,0 l/m 0 min 0 min 290 W/m 23,0 km/h (4 Bft)
02.06.2015 10:06 15,1 C 13,9 C 73 % 0 lf 1010,6 hPa 0,0 l/m 2 min 0 min 407 W/m 20,9 km/h (4 Bft)
02.06.2015 10:08 15,2 C 14,4 C 73 % 0 lf 1010,5 hPa 0,0 l/m 2 min 0 min 496 W/m 23,0 km/h (4 Bft)
02.06.2015 10:10 15,3 C 14,4 C 74 % 0 lf 1010,5 hPa 0,0 l/m 2 min 0 min 474 W/m 25,1 km/h (4 Bft)
02.06.2015 10:12 15,4 C 14,4 C 73 % 0 lf 1010,5 hPa 0,0 l/m 0 min 0 min 317 W/m 27,2 km/h (4 Bft)
02.06.2015 10:14 15,6 C 14,4 C 72 % 0 lf 1010,6 hPa 0,0 l/m 0 min 0 min 249 W/m 35,6 km/h (5 Bft)
02.06.2015 10:16 15,6 C 13,9 C 72 % 0 lf 1010,6 hPa 0,0 l/m 0 min 0 min 259 W/m 35,6 km/h (5 Bft)
02.06.2015 10:18 15,7 C 13,9 C 72 % 0 lf 1010,5 hPa 0,0 l/m 0 min 0 min 266 W/m 29,3 km/h (5 Bft)
02.06.2015 10:20 15,8 C 13,9 C 72 % 0 lf 1010,7 hPa 0,0 l/m 0 min 0 min 282 W/m 27,2 km/h (4 Bft)
02.06.2015 10:22 15,8 C 13,9 C 71 % 0 lf 1010,7 hPa 0,0 l/m 0 min 0 min 260 W/m 20,9 km/h (4 Bft)
02.06.2015 10:24 15,9 C 13,9 C 72 % 0 lf 1010,7 hPa 0,0 l/m 0 min 0 min 246 W/m 31,4 km/h (5 Bft)
02.06.2015 10:26 15,9 C 13,9 C 72 % 0 lf 1010,6 hPa 0,0 l/m 0 min 0 min 208 W/m 41,8 km/h (6 Bft)
02.06.2015 10:28 15,9 C 13,9 C 72 % 0 lf 1010,7 hPa 0,0 l/m 0 min 2 min 192 W/m 27,2 km/h (4 Bft)
02.06.2015 10:30 15,9 C 13,9 C 71 % 0 lf 1010,8 hPa 0,0 l/m 0 min 0 min 185 W/m 46,0 km/h (6 Bft)
02.06.2015 10:32 15,9 C 13,9 C 71 % 0 lf 1010,7 hPa 0,0 l/m 0 min 2 min 181 W/m 33,5 km/h (5 Bft)
02.06.2015 10:34 15,9 C 13,3 C 72 % 0 lf 1010,8 hPa 0,0 l/m 0 min 0 min 180 W/m 31,4 km/h (5 Bft)
02.06.2015 10:36 15,9 C 13,3 C 72 % 0 lf 1010,7 hPa 0,0 l/m 0 min 0 min 176 W/m 29,3 km/h (5 Bft)
02.06.2015 10:38 15,9 C 13,3 C 72 % 0 lf 1010,7 hPa 0,0 l/m 0 min 0 min 140 W/m 25,1 km/h (4 Bft)
02.06.2015 10:40 15,9 C 13,3 C 72 % 0 lf 1010,7 hPa 0,0 l/m 0 min 0 min 142 W/m 33,5 km/h (5 Bft)
02.06.2015 10:42 15,9 C 13,3 C 72 % 0 lf 1010,8 hPa 0,0 l/m 0 min 0 min 146 W/m 33,5 km/h (5 Bft)
02.06.2015 10:44 15,9 C 13,3 C 72 % 0 lf 1010,8 hPa 0,0 l/m 0 min 0 min 129 W/m 27,2 km/h (4 Bft)
02.06.2015 10:46 15,9 C 13,3 C 72 % 0 lf 1010,8 hPa 0,0 l/m 0 min 0 min 104 W/m 23,0 km/h (4 Bft)
02.06.2015 10:48 15,9 C 13,3 C 73 % 0 lf 1010,9 hPa 0,0 l/m 0 min 0 min 100 W/m 29,3 km/h (5 Bft)
02.06.2015 10:50 15,9 C 13,3 C 73 % 2 lf 1010,8 hPa 0,0 l/m 0 min 0 min 108 W/m 20,9 km/h (4 Bft)
02.06.2015 10:52 15,9 C 13,3 C 74 % 3 lf 1010,8 hPa 0,0 l/m 0 min 0 min 124 W/m 20,9 km/h (4 Bft)
02.06.2015 10:54 15,9 C 13,3 C 74 % 1 lf 1010,8 hPa 0,0 l/m 0 min 2 min 137 W/m 25,1 km/h (4 Bft)
02.06.2015 10:56 15,9 C 12,8 C 74 % 4 lf 1010,8 hPa 0,0 l/m 0 min 2 min 113 W/m 23,0 km/h (4 Bft)
02.06.2015 10:58 15,8 C 12,8 C 75 % 3 lf 1010,8 hPa 0,0 l/m 0 min 2 min 89 W/m 20,9 km/h (4 Bft)
02.06.2015 11:00 15,8 C 12,8 C 75 % 0 lf 1010,8 hPa 0,0 l/m 0 min 2 min 95 W/m 33,5 km/h (5 Bft)
02.06.2015 11:02 15,7 C 12,2 C 75 % 0 lf 1010,8 hPa 0,0 l/m 0 min 0 min 95 W/m 23,0 km/h (4 Bft)
02.06.2015 11:04 15,7 C 12,2 C 75 % 0 lf 1010,9 hPa 0,0 l/m 0 min 0 min 101 W/m 31,4 km/h (5 Bft)
02.06.2015 11:06 15,7 C 12,8 C 76 % 0 lf 1010,8 hPa 0,0 l/m 0 min 0 min 92 W/m 31,4 km/h (5 Bft)
02.06.2015 11:08 15,6 C 12,8 C 76 % 0 lf 1010,8 hPa 0,0 l/m 0 min 0 min 97 W/m 25,1 km/h (4 Bft)
02.06.2015 11:10 15,6 C 12,8 C 76 % 0 lf 1010,8 hPa 0,0 l/m 0 min 0 min 96 W/m 27,2 km/h (4 Bft)
02.06.2015 11:12 15,6 C 12,8 C 76 % 0 lf 1010,8 hPa 0,0 l/m 0 min 0 min 93 W/m 33,5 km/h (5 Bft)
02.06.2015 11:14 15,6 C 12,8 C 75 % 0 lf 1010,7 hPa 0,0 l/m 0 min 0 min 92 W/m 29,3 km/h (5 Bft)
02.06.2015 11:16 15,6 C 12,8 C 76 % 0 lf 1010,8 hPa 0,0 l/m 0 min 0 min 87 W/m 37,7 km/h (5 Bft)
02.06.2015 11:18 15,6 C 12,8 C 76 % 0 lf 1010,8 hPa 0,0 l/m 0 min 0 min 102 W/m 41,8 km/h (6 Bft)
02.06.2015 11:20 15,5 C 13,3 C 76 % 0 lf 1010,8 hPa 0,0 l/m 0 min 0 min 102 W/m 33,5 km/h (5 Bft)
02.06.2015 11:22 15,6 C 13,3 C 76 % 0 lf 1010,8 hPa 0,0 l/m 0 min 0 min 106 W/m 20,9 km/h (4 Bft)
02.06.2015 11:24 15,6 C 13,3 C 76 % 0 lf 1010,8 hPa 0,0 l/m 0 min 2 min 100 W/m 18,8 km/h (3 Bft)
02.06.2015 11:26 15,6 C 13,3 C 76 % 0 lf 1010,8 hPa 0,0 l/m 0 min 2 min 98 W/m 27,2 km/h (4 Bft)
02.06.2015 11:28 15,6 C 13,3 C 76 % 0 lf 1010,8 hPa 0,0 l/m 0 min 0 min 101 W/m 29,3 km/h (5 Bft)
02.06.2015 11:30 15,6 C 13,3 C 76 % 0 lf 1010,8 hPa 0,0 l/m 0 min 0 min 98 W/m 31,4 km/h (5 Bft)
02.06.2015 11:32 15,6 C 13,3 C 76 % 0 lf 1010,8 hPa 0,0 l/m 0 min 0 min 104 W/m 31,4 km/h (5 Bft)
02.06.2015 11:34 15,6 C 13,3 C 76 % 0 lf 1010,8 hPa 0,0 l/m 0 min 0 min 106 W/m 29,3 km/h (5 Bft)
02.06.2015 11:36 15,6 C 13,3 C 76 % 0 lf 1010,8 hPa 0,0 l/m 0 min 0 min 126 W/m 23,0 km/h (4 Bft)
02.06.2015 11:38 15,6 C 13,3 C 76 % 0 lf 1011,0 hPa 0,0 l/m 0 min 0 min 135 W/m 25,1 km/h (4 Bft)
02.06.2015 11:40 15,7 C 13,3 C 76 % 0 lf 1010,9 hPa 0,0 l/m 0 min 0 min 131 W/m 29,3 km/h (5 Bft)
02.06.2015 11:42 15,7 C 13,3 C 76 % 0 lf 1011,0 hPa 0,0 l/m 0 min 0 min 140 W/m 37,7 km/h (5 Bft)
02.06.2015 11:44 15,7 C 13,3 C 76 % 0 lf 1010,9 hPa 0,0 l/m 0 min 0 min 145 W/m 33,5 km/h (5 Bft)
02.06.2015 11:46 15,7 C 13,9 C 76 % 0 lf 1011,0 hPa 0,0 l/m 0 min 0 min 134 W/m 29,3 km/h (5 Bft)
02.06.2015 11:48 15,7 C 13,3 C 76 % 0 lf 1010,9 hPa 0,0 l/m 0 min 0 min 133 W/m 37,7 km/h (5 Bft)
02.06.2015 11:50 15,8 C 13,3 C 76 % 0 lf 1010,9 hPa 0,0 l/m 0 min 0 min 126 W/m 33,5 km/h (5 Bft)
02.06.2015 11:52 15,8 C 13,3 C 76 % 3 lf 1010,9 hPa 0,0 l/m 0 min 0 min 115 W/m 37,7 km/h (5 Bft)
02.06.2015 11:54 15,8 C 13,3 C 76 % 0 lf 1010,9 hPa 0,0 l/m 0 min 2 min 113 W/m 25,1 km/h (4 Bft)
02.06.2015 11:56 15,8 C 13,3 C 77 % 2 lf 1010,9 hPa 0,0 l/m 0 min 2 min 119 W/m 27,2 km/h (4 Bft)
02.06.2015 11:58 15,8 C 13,3 C 77 % 2 lf 1010,9 hPa 0,0 l/m 0 min 2 min 109 W/m 35,6 km/h (5 Bft)
02.06.2015 12:00 15,8 C 13,3 C 77 % 0 lf 1010,9 hPa 0,0 l/m 0 min 2 min 101 W/m 27,2 km/h (4 Bft)
02.06.2015 12:03 15,8 C 13,3 C 77 % 0 lf 1010,9 hPa 0,0 l/m 0 min 0 min 113 W/m 20,9 km/h (4 Bft)
02.06.2015 12:04 15,8 C 13,3 C 77 % 0 lf 1010,9 hPa 0,0 l/m 0 min 0 min 107 W/m 20,9 km/h (4 Bft)
02.06.2015 12:06 15,8 C 13,3 C 77 % 0 lf 1010,9 hPa 0,0 l/m 0 min 0 min 130 W/m 14,6 km/h (3 Bft)
02.06.2015 12:08 15,8 C 13,9 C 78 % 0 lf 1010,9 hPa 0,0 l/m 0 min 0 min 145 W/m 16,7 km/h (3 Bft)
02.06.2015 12:10 15,8 C 13,9 C 78 % 0 lf 1010,9 hPa 0,0 l/m 0 min 0 min 150 W/m 25,1 km/h (4 Bft)
02.06.2015 12:12 15,9 C 13,9 C 77 % 0 lf 1011,0 hPa 0,0 l/m 0 min 0 min 141 W/m 27,2 km/h (4 Bft)
02.06.2015 12:14 15,9 C 13,9 C 77 % 0 lf 1010,9 hPa 0,0 l/m 0 min 0 min 135 W/m 25,1 km/h (4 Bft)
02.06.2015 12:16 15,9 C 13,9 C 77 % 0 lf 1011,0 hPa 0,0 l/m 0 min 0 min 148 W/m 33,5 km/h (5 Bft)
02.06.2015 12:18 15,9 C 13,9 C 77 % 0 lf 1011,0 hPa 0,0 l/m 0 min 0 min 173 W/m 25,1 km/h (4 Bft)
02.06.2015 12:20 15,9 C 13,9 C 77 % 0 lf 1011,0 hPa 0,0 l/m 0 min 0 min 171 W/m 20,9 km/h (4 Bft)
02.06.2015 12:22 16,0 C 13,9 C 77 % 0 lf 1011,0 hPa 0,0 l/m 0 min 0 min 185 W/m 27,2 km/h (4 Bft)
02.06.2015 12:24 16,1 C 14,4 C 77 % 0 lf 1010,9 hPa 0,0 l/m 0 min 0 min 179 W/m 29,3 km/h (5 Bft)
02.06.2015 12:26 16,1 C 14,4 C 77 % 0 lf 1011,0 hPa 0,0 l/m 0 min 0 min 166 W/m 23,0 km/h (4 Bft)
02.06.2015 12:28 16,1 C 14,4 C 77 % 0 lf 1011,0 hPa 0,0 l/m 0 min 0 min 162 W/m 23,0 km/h (4 Bft)
02.06.2015 12:30 16,2 C 14,4 C 77 % 0 lf 1010,9 hPa 0,0 l/m 0 min 0 min 163 W/m 37,7 km/h (5 Bft)
02.06.2015 12:32 16,2 C 14,4 C 77 % 0 lf 1011,0 hPa 0,0 l/m 0 min 0 min 187 W/m 27,2 km/h (4 Bft)
02.06.2015 12:34 16,2 C 14,4 C 77 % 0 lf 1010,9 hPa 0,0 l/m 0 min 0 min 203 W/m 27,2 km/h (4 Bft)
02.06.2015 12:36 16,3 C 14,4 C 77 % 0 lf 1010,9 hPa 0,0 l/m 0 min 0 min 205 W/m 31,4 km/h (5 Bft)
02.06.2015 12:38 16,3 C 14,4 C 77 % 0 lf 1010,9 hPa 0,0 l/m 0 min 0 min 211 W/m 31,4 km/h (5 Bft)
02.06.2015 12:40 16,4 C 15,0 C 77 % 0 lf 1010,8 hPa 0,0 l/m 0 min 0 min 230 W/m 35,6 km/h (5 Bft)
02.06.2015 12:42 16,4 C 14,4 C 76 % 0 lf 1011,0 hPa 0,0 l/m 0 min 0 min 237 W/m 35,6 km/h (5 Bft)
02.06.2015 12:44 16,5 C 15,0 C 76 % 0 lf 1010,8 hPa 0,0 l/m 0 min 0 min 238 W/m 20,9 km/h (4 Bft)
02.06.2015 12:46 16,6 C 15,0 C 76 % 0 lf 1010,8 hPa 0,0 l/m 0 min 0 min 236 W/m 29,3 km/h (5 Bft)
02.06.2015 12:48 16,6 C 15,0 C 76 % 0 lf 1010,9 hPa 0,0 l/m 0 min 0 min 247 W/m 23,0 km/h (4 Bft)
02.06.2015 12:50 16,7 C 15,0 C 76 % 0 lf 1010,8 hPa 0,0 l/m 0 min 0 min 279 W/m 31,4 km/h (5 Bft)
02.06.2015 12:52 16,7 C 15,0 C 76 % 0 lf 1010,9 hPa 0,0 l/m 0 min 0 min 271 W/m 35,6 km/h (5 Bft)
02.06.2015 12:54 16,8 C 15,0 C 76 % 0 lf 1010,8 hPa 0,0 l/m 0 min 0 min 280 W/m 33,5 km/h (5 Bft)
02.06.2015 12:56 16,9 C 15,6 C 76 % 0 lf 1010,8 hPa 0,0 l/m 0 min 0 min 324 W/m 33,5 km/h (5 Bft)
02.06.2015 12:58 17,0 C 15,6 C 76 % 0 lf 1010,9 hPa 0,0 l/m 0 min 0 min 323 W/m 39,7 km/h (6 Bft)
02.06.2015 13:00 17,1 C 15,6 C 76 % 0 lf 1010,9 hPa 0,0 l/m 0 min 0 min 359 W/m 43,9 km/h (6 Bft)
02.06.2015 13:02 17,2 C 15,6 C 76 % 0 lf 1010,8 hPa 0,0 l/m 0 min 0 min 364 W/m 41,8 km/h (6 Bft)
02.06.2015 13:04 17,3 C 15,6 C 76 % 0 lf 1010,9 hPa 0,0 l/m 0 min 0 min 342 W/m 41,8 km/h (6 Bft)
02.06.2015 13:06 17,3 C 16,1 C 76 % 0 lf 1010,7 hPa 0,0 l/m 0 min 0 min 365 W/m 23,0 km/h (4 Bft)
02.06.2015 13:08 17,4 C 16,1 C 76 % 0 lf 1010,8 hPa 0,0 l/m 0 min 0 min 385 W/m 27,2 km/h (4 Bft)
02.06.2015 13:10 17,6 C 16,1 C 76 % 0 lf 1010,8 hPa 0,0 l/m 0 min 0 min 395 W/m 39,7 km/h (6 Bft)
02.06.2015 13:12 17,7 C 16,7 C 75 % 0 lf 1010,8 hPa 0,0 l/m 0 min 0 min 404 W/m 56,5 km/h (7 Bft)
02.06.2015 13:14 17,8 C 16,1 C 75 % 0 lf 1010,7 hPa 0,0 l/m 0 min 0 min 356 W/m 43,9 km/h (6 Bft)
02.06.2015 13:16 17,8 C 16,7 C 75 % 0 lf 1010,8 hPa 0,0 l/m 0 min 0 min 380 W/m 46,0 km/h (6 Bft)
02.06.2015 13:18 17,9 C 16,7 C 75 % 0 lf 1010,9 hPa 0,0 l/m 0 min 0 min 407 W/m 41,8 km/h (6 Bft)
02.06.2015 13:20 17,9 C 16,7 C 74 % 0 lf 1010,8 hPa 0,0 l/m 0 min 0 min 396 W/m 46,0 km/h (6 Bft)
02.06.2015 13:22 18,0 C 16,7 C 74 % 0 lf 1010,9 hPa 0,0 l/m 2 min 0 min 448 W/m 43,9 km/h (6 Bft)
02.06.2015 13:24 18,1 C 16,7 C 74 % 0 lf 1010,8 hPa 0,0 l/m 2 min 0 min 517 W/m 43,9 km/h (6 Bft)
02.06.2015 13:26 18,2 C 17,2 C 74 % 0 lf 1010,6 hPa 0,0 l/m 2 min 0 min 507 W/m 37,7 km/h (5 Bft)
02.06.2015 13:28 18,3 C 17,8 C 74 % 0 lf 1010,7 hPa 0,0 l/m 2 min 0 min 526 W/m 37,7 km/h (5 Bft)
02.06.2015 13:30 18,4 C 18,3 C 74 % 0 lf 1010,8 hPa 0,0 l/m 2 min 0 min 534 W/m 39,7 km/h (6 Bft)
02.06.2015 13:32 18,6 C 18,3 C 74 % 0 lf 1010,6 hPa 0,0 l/m 2 min 0 min 574 W/m 33,5 km/h (5 Bft)
02.06.2015 13:34 18,8 C 18,3 C 73 % 0 lf 1010,8 hPa 0,0 l/m 2 min 0 min 591 W/m 39,7 km/h (6 Bft)
02.06.2015 13:36 19,0 C 18,9 C 73 % 0 lf 1010,6 hPa 0,0 l/m 2 min 0 min 591 W/m 33,5 km/h (5 Bft)
02.06.2015 13:38 19,2 C 18,9 C 73 % 0 lf 1010,6 hPa 0,0 l/m 2 min 0 min 591 W/m 31,4 km/h (5 Bft)
02.06.2015 13:40 19,4 C 18,9 C 72 % 0 lf 1010,6 hPa 0,0 l/m 2 min 0 min 591 W/m 37,7 km/h (5 Bft)
02.06.2015 13:42 19,6 C 18,9 C 71 % 0 lf 1010,7 hPa 0,0 l/m 2 min 0 min 802 W/m 46,0 km/h (6 Bft)
02.06.2015 13:44 19,7 C 18,3 C 71 % 0 lf 1010,5 hPa 0,0 l/m 2 min 0 min 696 W/m 39,7 km/h (6 Bft)
02.06.2015 13:46 19,8 C 18,3 C 71 % 0 lf 1010,7 hPa 0,0 l/m 2 min 0 min 943 W/m 31,4 km/h (5 Bft)
02.06.2015 13:48 20,0 C 18,3 C 70 % 0 lf 1010,6 hPa 0,0 l/m 2 min 0 min 1030 W/m 33,5 km/h (5 Bft)
02.06.2015 13:50 20,1 C 18,3 C 70 % 0 lf 1010,7 hPa 0,0 l/m 2 min 0 min 1030 W/m 29,3 km/h (5 Bft)
02.06.2015 13:52 20,2 C 18,9 C 70 % 0 lf 1010,8 hPa 0,0 l/m 2 min 0 min 1030 W/m 35,6 km/h (5 Bft)
02.06.2015 13:54 20,3 C 18,9 C 69 % 0 lf 1010,7 hPa 0,0 l/m 2 min 0 min 1030 W/m 41,8 km/h (6 Bft)
02.06.2015 13:56 20,4 C 18,9 C 69 % 0 lf 1010,6 hPa 0,0 l/m 2 min 0 min 848 W/m 35,6 km/h (5 Bft)
02.06.2015 13:58 20,4 C 18,9 C 69 % 0 lf 1010,6 hPa 0,0 l/m 2 min 0 min 483 W/m 41,8 km/h (6 Bft)
02.06.2015 14:00 20,4 C 18,9 C 69 % 0 lf 1010,7 hPa 0,0 l/m 2 min 0 min 522 W/m 41,8 km/h (6 Bft)
02.06.2015 14:02 20,4 C 18,3 C 68 % 0 lf 1010,7 hPa 0,0 l/m 0 min 0 min 412 W/m 35,6 km/h (5 Bft)
02.06.2015 14:04 20,4 C 18,3 C 69 % 0 lf 1010,7 hPa 0,0 l/m 0 min 0 min 353 W/m 29,3 km/h (5 Bft)
02.06.2015 14:06 20,4 C 18,3 C 69 % 0 lf 1010,8 hPa 0,0 l/m 0 min 0 min 399 W/m 35,6 km/h (5 Bft)
02.06.2015 14:08 20,3 C 17,8 C 69 % 0 lf 1010,9 hPa 0,0 l/m 0 min 0 min 319 W/m 52,3 km/h (7 Bft)
02.06.2015 14:10 20,2 C 17,8 C 69 % 0 lf 1010,9 hPa 0,0 l/m 0 min 0 min 280 W/m 33,5 km/h (5 Bft)
02.06.2015 14:12 20,2 C 17,8 C 70 % 0 lf 1010,8 hPa 0,0 l/m 0 min 0 min 303 W/m 23,0 km/h (4 Bft)
02.06.2015 14:14 20,2 C 17,8 C 70 % 0 lf 1010,8 hPa 0,0 l/m 0 min 0 min 309 W/m 37,7 km/h (5 Bft)
02.06.2015 14:16 20,1 C 17,8 C 69 % 0 lf 1010,9 hPa 0,0 l/m 0 min 0 min 312 W/m 31,4 km/h (5 Bft)
02.06.2015 14:18 20,1 C 17,8 C 69 % 0 lf 1010,9 hPa 0,0 l/m 0 min 0 min 402 W/m 37,7 km/h (5 Bft)
02.06.2015 14:20 20,1 C 18,3 C 70 % 0 lf 1010,8 hPa 0,0 l/m 2 min 0 min 442 W/m 25,1 km/h (4 Bft)
02.06.2015 14:22 20,1 C 18,3 C 70 % 0 lf 1010,9 hPa 0,0 l/m 0 min 0 min 362 W/m 46,0 km/h (6 Bft)
02.06.2015 14:24 20,1 C 18,3 C 69 % 0 lf 1010,9 hPa 0,0 l/m 0 min 0 min 361 W/m 48,1 km/h (6 Bft)
02.06.2015 14:26 20,0 C 17,8 C 70 % 0 lf 1010,9 hPa 0,0 l/m 0 min 0 min 365 W/m 33,5 km/h (5 Bft)
02.06.2015 14:28 20,0 C 17,8 C 69 % 0 lf 1010,9 hPa 0,0 l/m 0 min 0 min 306 W/m 29,3 km/h (5 Bft)
02.06.2015 14:30 19,9 C 17,8 C 70 % 0 lf 1010,9 hPa 0,0 l/m 0 min 0 min 256 W/m 41,8 km/h (6 Bft)
02.06.2015 14:32 19,9 C 17,8 C 70 % 0 lf 1010,9 hPa 0,0 l/m 0 min 0 min 243 W/m 33,5 km/h (5 Bft)
02.06.2015 14:34 19,8 C 17,2 C 70 % 0 lf 1010,9 hPa 0,0 l/m 0 min 0 min 216 W/m 33,5 km/h (5 Bft)
02.06.2015 14:36 19,8 C 17,2 C 70 % 0 lf 1010,9 hPa 0,0 l/m 0 min 0 min 203 W/m 31,4 km/h (5 Bft)
02.06.2015 14:38 19,7 C 17,2 C 71 % 0 lf 1011,0 hPa 0,0 l/m 0 min 0 min 193 W/m 27,2 km/h (4 Bft)
02.06.2015 14:40 19,7 C 17,2 C 70 % 0 lf 1011,0 hPa 0,0 l/m 0 min 0 min 206 W/m 33,5 km/h (5 Bft)
02.06.2015 14:42 19,6 C 17,2 C 70 % 0 lf 1011,1 hPa 0,0 l/m 0 min 0 min 195 W/m 54,4 km/h (7 Bft)
02.06.2015 14:44 19,5 C 16,7 C 70 % 0 lf 1011,1 hPa 0,0 l/m 0 min 0 min 172 W/m 54,4 km/h (7 Bft)
02.06.2015 14:46 19,4 C 16,7 C 70 % 0 lf 1011,1 hPa 0,0 l/m 0 min 0 min 183 W/m 46,0 km/h (6 Bft)
02.06.2015 14:48 19,3 C 16,7 C 71 % 0 lf 1011,1 hPa 0,0 l/m 0 min 0 min 163 W/m 50,2 km/h (7 Bft)
02.06.2015 14:50 19,2 C 16,7 C 71 % 0 lf 1011,1 hPa 0,0 l/m 0 min 0 min 152 W/m 37,7 km/h (5 Bft)
02.06.2015 14:52 19,2 C 16,7 C 71 % 0 lf 1011,1 hPa 0,0 l/m 0 min 0 min 167 W/m 33,5 km/h (5 Bft)
02.06.2015 14:54 19,1 C 16,7 C 71 % 0 lf 1011,1 hPa 0,0 l/m 0 min 0 min 152 W/m 41,8 km/h (6 Bft)
02.06.2015 14:56 19,1 C 16,7 C 72 % 0 lf 1011,1 hPa 0,0 l/m 0 min 0 min 150 W/m 33,5 km/h (5 Bft)
02.06.2015 14:58 19,1 C 16,7 C 71 % 0 lf 1011,1 hPa 0,0 l/m 0 min 0 min 167 W/m 37,7 km/h (5 Bft)
02.06.2015 15:00 19,1 C 16,7 C 71 % 0 lf 1011,2 hPa 0,0 l/m 0 min 0 min 189 W/m 37,7 km/h (5 Bft)
02.06.2015 15:02 19,0 C 16,7 C 71 % 0 lf 1011,1 hPa 0,0 l/m 0 min 0 min 207 W/m 39,7 km/h (6 Bft)
02.06.2015 15:04 19,0 C 16,7 C 72 % 0 lf 1011,2 hPa 0,0 l/m 0 min 0 min 188 W/m 52,3 km/h (7 Bft)
02.06.2015 15:06 18,9 C 16,7 C 72 % 0 lf 1011,2 hPa 0,0 l/m 0 min 0 min 168 W/m 33,5 km/h (5 Bft)
02.06.2015 15:08 18,9 C 16,7 C 72 % 0 lf 1011,3 hPa 0,0 l/m 0 min 0 min 164 W/m 50,2 km/h (7 Bft)
02.06.2015 15:10 18,9 C 16,7 C 72 % 0 lf 1011,3 hPa 0,0 l/m 0 min 0 min 200 W/m 37,7 km/h (5 Bft)
02.06.2015 15:12 18,9 C 16,7 C 72 % 0 lf 1011,4 hPa 0,0 l/m 0 min 0 min 204 W/m 41,8 km/h (6 Bft)
02.06.2015 15:14 18,9 C 16,7 C 72 % 0 lf 1011,4 hPa 0,0 l/m 0 min 0 min 235 W/m 39,7 km/h (6 Bft)
02.06.2015 15:16 18,9 C 17,2 C 72 % 0 lf 1011,3 hPa 0,0 l/m 0 min 0 min 274 W/m 31,4 km/h (5 Bft)
02.06.2015 15:18 19,0 C 17,2 C 73 % 0 lf 1011,4 hPa 0,0 l/m 0 min 0 min 249 W/m 27,2 km/h (4 Bft)
02.06.2015 15:20 19,0 C 17,2 C 73 % 0 lf 1011,4 hPa 0,0 l/m 0 min 0 min 261 W/m 18,8 km/h (3 Bft)
02.06.2015 15:22 19,1 C 17,8 C 73 % 0 lf 1011,3 hPa 0,0 l/m 0 min 0 min 374 W/m 18,8 km/h (3 Bft)
02.06.2015 15:24 19,1 C 17,8 C 73 % 0 lf 1011,3 hPa 0,0 l/m 0 min 0 min 347 W/m 43,9 km/h (6 Bft)
02.06.2015 15:26 19,2 C 17,8 C 72 % 0 lf 1011,4 hPa 0,0 l/m 0 min 0 min 288 W/m 43,9 km/h (6 Bft)
02.06.2015 15:28 19,2 C 17,8 C 72 % 0 lf 1011,4 hPa 0,0 l/m 0 min 0 min 308 W/m 35,6 km/h (5 Bft)
02.06.2015 15:30 19,3 C 17,8 C 72 % 0 lf 1011,4 hPa 0,0 l/m 0 min 0 min 265 W/m 39,7 km/h (6 Bft)
02.06.2015 15:32 19,3 C 17,8 C 72 % 0 lf 1011,4 hPa 0,0 l/m 0 min 0 min 298 W/m 31,4 km/h (5 Bft)
02.06.2015 15:34 19,4 C 17,8 C 72 % 0 lf 1011,3 hPa 0,0 l/m 0 min 0 min 292 W/m 25,1 km/h (4 Bft)
02.06.2015 15:36 19,4 C 17,8 C 72 % 0 lf 1011,3 hPa 0,0 l/m 0 min 0 min 297 W/m 23,0 km/h (4 Bft)
02.06.2015 15:38 19,5 C 17,8 C 73 % 0 lf 1011,3 hPa 0,0 l/m 0 min 0 min 288 W/m 33,5 km/h (5 Bft)
02.06.2015 15:40 19,5 C 17,8 C 72 % 0 lf 1011,4 hPa 0,0 l/m 0 min 0 min 249 W/m 29,3 km/h (5 Bft)
02.06.2015 15:42 19,5 C 17,8 C 71 % 0 lf 1011,4 hPa 0,0 l/m 0 min 0 min 269 W/m 27,2 km/h (4 Bft)
02.06.2015 15:44 19,6 C 17,8 C 71 % 0 lf 1011,4 hPa 0,0 l/m 0 min 0 min 272 W/m 37,7 km/h (5 Bft)
02.06.2015 15:46 19,6 C 17,8 C 71 % 0 lf 1011,4 hPa 0,0 l/m 0 min 0 min 272 W/m 39,7 km/h (6 Bft)
02.06.2015 15:48 19,6 C 17,8 C 71 % 0 lf 1011,4 hPa 0,0 l/m 0 min 0 min 248 W/m 29,3 km/h (5 Bft)
02.06.2015 15:50 19,6 C 17,2 C 71 % 0 lf 1011,4 hPa 0,0 l/m 0 min 0 min 196 W/m 35,6 km/h (5 Bft)
02.06.2015 15:52 19,6 C 17,2 C 71 % 0 lf 1011,5 hPa 0,0 l/m 0 min 0 min 153 W/m 37,7 km/h (5 Bft)
02.06.2015 15:54 19,6 C 17,2 C 71 % 0 lf 1011,4 hPa 0,0 l/m 0 min 0 min 137 W/m 39,7 km/h (6 Bft)
02.06.2015 15:56 19,5 C 17,2 C 71 % 0 lf 1011,4 hPa 0,0 l/m 0 min 0 min 150 W/m 33,5 km/h (5 Bft)
02.06.2015 15:58 19,5 C 16,7 C 71 % 0 lf 1011,5 hPa 0,0 l/m 0 min 0 min 158 W/m 29,3 km/h (5 Bft)
02.06.2015 16:00 19,4 C 17,2 C 71 % 0 lf 1011,5 hPa 0,0 l/m 0 min 0 min 166 W/m 29,3 km/h (5 Bft)
02.06.2015 16:02 19,4 C 17,2 C 71 % 0 lf 1011,7 hPa 0,0 l/m 0 min 0 min 227 W/m 35,6 km/h (5 Bft)
02.06.2015 16:04 19,4 C 17,2 C 71 % 0 lf 1011,6 hPa 0,0 l/m 0 min 0 min 202 W/m 25,1 km/h (4 Bft)
02.06.2015 16:06 19,4 C 17,2 C 72 % 0 lf 1011,6 hPa 0,0 l/m 0 min 0 min 192 W/m 39,7 km/h (6 Bft)
02.06.2015 16:08 19,4 C 17,2 C 71 % 0 lf 1011,7 hPa 0,0 l/m 0 min 0 min 189 W/m 41,8 km/h (6 Bft)
02.06.2015 16:10 19,4 C 17,2 C 72 % 0 lf 1011,6 hPa 0,0 l/m 0 min 0 min 170 W/m 31,4 km/h (5 Bft)
02.06.2015 16:12 19,4 C 17,2 C 71 % 0 lf 1011,6 hPa 0,0 l/m 0 min 0 min 169 W/m 39,7 km/h (6 Bft)
02.06.2015 16:14 19,4 C 17,2 C 71 % 0 lf 1011,6 hPa 0,0 l/m 0 min 0 min 160 W/m 29,3 km/h (5 Bft)
02.06.2015 16:16 19,4 C 17,2 C 71 % 0 lf 1011,8 hPa 0,0 l/m 0 min 0 min 156 W/m 29,3 km/h (5 Bft)
02.06.2015 16:18 19,4 C 17,2 C 71 % 0 lf 1011,7 hPa 0,0 l/m 0 min 0 min 159 W/m 35,6 km/h (5 Bft)
02.06.2015 16:20 19,4 C 17,2 C 71 % 0 lf 1011,7 hPa 0,0 l/m 0 min 0 min 179 W/m 29,3 km/h (5 Bft)
02.06.2015 16:22 19,4 C 17,2 C 71 % 0 lf 1011,6 hPa 0,0 l/m 0 min 0 min 185 W/m 25,1 km/h (4 Bft)
02.06.2015 16:24 19,5 C 17,2 C 71 % 0 lf 1011,9 hPa 0,0 l/m 0 min 0 min 165 W/m 37,7 km/h (5 Bft)
02.06.2015 16:26 19,5 C 17,2 C 71 % 0 lf 1011,6 hPa 0,0 l/m 0 min 0 min 154 W/m 20,9 km/h (4 Bft)
02.06.2015 16:28 19,5 C 17,2 C 71 % 0 lf 1011,8 hPa 0,0 l/m 0 min 0 min 157 W/m 48,1 km/h (6 Bft)
02.06.2015 16:30 19,5 C 17,2 C 71 % 0 lf 1011,8 hPa 0,0 l/m 0 min 0 min 170 W/m 37,7 km/h (5 Bft)
02.06.2015 16:32 19,5 C 17,2 C 71 % 0 lf 1011,8 hPa 0,0 l/m 0 min 0 min 157 W/m 27,2 km/h (4 Bft)
02.06.2015 16:34 19,5 C 17,2 C 71 % 0 lf 1011,7 hPa 0,0 l/m 0 min 0 min 157 W/m 25,1 km/h (4 Bft)
02.06.2015 16:36 19,5 C 17,2 C 72 % 0 lf 1011,6 hPa 0,0 l/m 0 min 0 min 167 W/m 20,9 km/h (4 Bft)
02.06.2015 16:38 19,5 C 17,2 C 72 % 0 lf 1011,6 hPa 0,0 l/m 0 min 0 min 176 W/m 23,0 km/h (4 Bft)
02.06.2015 16:40 19,6 C 17,2 C 72 % 0 lf 1011,7 hPa 0,0 l/m 0 min 0 min 149 W/m 27,2 km/h (4 Bft)
02.06.2015 16:42 19,6 C 17,2 C 72 % 0 lf 1011,6 hPa 0,0 l/m 0 min 0 min 149 W/m 25,1 km/h (4 Bft)
02.06.2015 16:44 19,6 C 17,2 C 71 % 0 lf 1011,9 hPa 0,0 l/m 0 min 0 min 145 W/m 39,7 km/h (6 Bft)
02.06.2015 16:46 19,6 C 17,2 C 71 % 0 lf 1011,7 hPa 0,0 l/m 0 min 0 min 130 W/m 23,0 km/h (4 Bft)
02.06.2015 16:48 19,6 C 17,2 C 71 % 0 lf 1011,6 hPa 0,0 l/m 0 min 0 min 138 W/m 25,1 km/h (4 Bft)
02.06.2015 16:50 19,6 C 17,2 C 71 % 0 lf 1011,7 hPa 0,0 l/m 0 min 0 min 139 W/m 29,3 km/h (5 Bft)
02.06.2015 16:52 19,6 C 17,2 C 71 % 0 lf 1011,7 hPa 0,0 l/m 0 min 0 min 148 W/m 29,3 km/h (5 Bft)
02.06.2015 16:54 19,6 C 17,2 C 71 % 0 lf 1011,6 hPa 0,0 l/m 0 min 0 min 141 W/m 27,2 km/h (4 Bft)
02.06.2015 16:56 19,6 C 17,2 C 71 % 0 lf 1011,6 hPa 0,0 l/m 0 min 0 min 164 W/m 31,4 km/h (5 Bft)
02.06.2015 16:58 19,6 C 17,2 C 71 % 0 lf 1011,6 hPa 0,0 l/m 0 min 0 min 198 W/m 27,2 km/h (4 Bft)
02.06.2015 17:00 19,7 C 17,2 C 71 % 0 lf 1011,7 hPa 0,0 l/m 0 min 0 min 161 W/m 20,9 km/h (4 Bft)
02.06.2015 17:02 19,7 C 17,2 C 71 % 0 lf 1011,8 hPa 0,0 l/m 0 min 0 min 142 W/m 27,2 km/h (4 Bft)
02.06.2015 17:04 19,7 C 17,2 C 71 % 0 lf 1011,8 hPa 0,0 l/m 0 min 0 min 138 W/m 35,6 km/h (5 Bft)
02.06.2015 17:06 19,7 C 16,7 C 71 % 0 lf 1011,8 hPa 0,0 l/m 0 min 0 min 148 W/m 48,1 km/h (6 Bft)
02.06.2015 17:08 19,7 C 16,7 C 71 % 0 lf 1011,8 hPa 0,0 l/m 0 min 0 min 139 W/m 35,6 km/h (5 Bft)
02.06.2015 17:10 19,7 C 16,7 C 71 % 0 lf 1012,0 hPa 0,0 l/m 0 min 0 min 128 W/m 35,6 km/h (5 Bft)
02.06.2015 17:12 19,7 C 16,7 C 71 % 0 lf 1011,7 hPa 0,0 l/m 0 min 0 min 124 W/m 29,3 km/h (5 Bft)
02.06.2015 17:14 19,7 C 16,7 C 71 % 0 lf 1011,8 hPa 0,0 l/m 0 min 0 min 114 W/m 35,6 km/h (5 Bft)
02.06.2015 17:16 19,7 C 16,7 C 71 % 0 lf 1011,8 hPa 0,0 l/m 0 min 0 min 115 W/m 27,2 km/h (4 Bft)
02.06.2015 17:18 19,8 C 16,7 C 71 % 0 lf 1011,6 hPa 0,0 l/m 0 min 0 min 111 W/m 31,4 km/h (5 Bft)
02.06.2015 17:20 19,8 C 16,7 C 71 % 0 lf 1011,7 hPa 0,0 l/m 0 min 0 min 108 W/m 20,9 km/h (4 Bft)
02.06.2015 17:22 19,8 C 16,7 C 71 % 0 lf 1011,7 hPa 0,0 l/m 0 min 0 min 110 W/m 20,9 km/h (4 Bft)
02.06.2015 17:24 19,8 C 16,7 C 71 % 0 lf 1011,7 hPa 0,0 l/m 0 min 0 min 116 W/m 23,0 km/h (4 Bft)
02.06.2015 17:26 19,8 C 16,7 C 71 % 0 lf 1011,7 hPa 0,0 l/m 0 min 0 min 119 W/m 31,4 km/h (5 Bft)
02.06.2015 17:28 19,8 C 16,7 C 71 % 0 lf 1011,6 hPa 0,0 l/m 0 min 0 min 122 W/m 29,3 km/h (5 Bft)
02.06.2015 17:30 19,8 C 16,7 C 71 % 0 lf 1011,8 hPa 0,0 l/m 0 min 0 min 129 W/m 20,9 km/h (4 Bft)
02.06.2015 17:32 19,8 C 16,7 C 71 % 0 lf 1011,8 hPa 0,0 l/m 0 min 0 min 126 W/m 20,9 km/h (4 Bft)
02.06.2015 17:34 19,8 C 16,7 C 71 % 0 lf 1011,8 hPa 0,0 l/m 0 min 0 min 124 W/m 31,4 km/h (5 Bft)
02.06.2015 17:36 19,8 C 16,7 C 71 % 0 lf 1011,8 hPa 0,0 l/m 0 min 0 min 131 W/m 23,0 km/h (4 Bft)
02.06.2015 17:38 19,9 C 17,2 C 71 % 0 lf 1011,8 hPa 0,0 l/m 0 min 0 min 144 W/m 20,9 km/h (4 Bft)
02.06.2015 17:40 19,9 C 17,2 C 71 % 0 lf 1011,8 hPa 0,0 l/m 0 min 0 min 165 W/m 27,2 km/h (4 Bft)
02.06.2015 17:42 19,9 C 17,2 C 71 % 0 lf 1011,7 hPa 0,0 l/m 0 min 0 min 155 W/m 20,9 km/h (4 Bft)
02.06.2015 17:45 19,9 C 17,2 C 71 % 0 lf 1011,5 hPa 0,0 l/m 0 min 0 min 158 W/m 25,1 km/h (4 Bft)
02.06.2015 17:46 19,9 C 17,2 C 71 % 0 lf 1011,4 hPa 0,0 l/m 0 min 0 min 190 W/m 27,2 km/h (4 Bft)
02.06.2015 17:48 20,0 C 17,2 C 70 % 0 lf 1011,4 hPa 0,0 l/m 0 min 0 min 206 W/m 29,3 km/h (5 Bft)
02.06.2015 17:50 20,1 C 17,2 C 71 % 0 lf 1011,5 hPa 0,0 l/m 0 min 0 min 217 W/m 31,4 km/h (5 Bft)
02.06.2015 17:52 20,1 C 17,2 C 70 % 0 lf 1011,5 hPa 0,0 l/m 0 min 0 min 197 W/m 27,2 km/h (4 Bft)
02.06.2015 17:54 20,2 C 17,8 C 71 % 0 lf 1011,5 hPa 0,0 l/m 0 min 0 min 190 W/m 25,1 km/h (4 Bft)
02.06.2015 17:56 20,2 C 17,2 C 70 % 0 lf 1011,5 hPa 0,0 l/m 0 min 0 min 172 W/m 20,9 km/h (4 Bft)
02.06.2015 17:58 20,2 C 17,2 C 70 % 0 lf 1011,5 hPa 0,0 l/m 0 min 0 min 153 W/m 27,2 km/h (4 Bft)
02.06.2015 18:00 20,3 C 17,2 C 70 % 0 lf 1011,5 hPa 0,0 l/m 0 min 0 min 145 W/m 27,2 km/h (4 Bft)
02.06.2015 18:02 20,3 C 17,2 C 71 % 0 lf 1011,5 hPa 0,0 l/m 0 min 0 min 134 W/m 27,2 km/h (4 Bft)
02.06.2015 18:06 20,3 C 17,2 C 71 % 0 lf 1011,6 hPa 0,0 l/m 0 min 0 min 110 W/m 18,8 km/h (3 Bft)
02.06.2015 18:08 20,3 C 17,2 C 70 % 0 lf 1011,6 hPa 0,0 l/m 0 min 0 min 90 W/m 29,3 km/h (5 Bft)
02.06.2015 18:10 20,3 C 17,2 C 70 % 0 lf 1011,6 hPa 0,0 l/m 0 min 0 min 93 W/m 25,1 km/h (4 Bft)
02.06.2015 18:12 20,3 C 17,2 C 70 % 0 lf 1011,7 hPa 0,0 l/m 0 min 0 min 97 W/m 29,3 km/h (5 Bft)
02.06.2015 18:14 20,3 C 17,2 C 70 % 0 lf 1011,8 hPa 0,0 l/m 0 min 0 min 91 W/m 20,9 km/h (4 Bft)
02.06.2015 18:16 20,2 C 17,2 C 70 % 0 lf 1011,7 hPa 0,0 l/m 0 min 0 min 88 W/m 23,0 km/h (4 Bft)
02.06.2015 18:18 20,2 C 17,2 C 70 % 0 lf 1011,8 hPa 0,0 l/m 0 min 0 min 90 W/m 31,4 km/h (5 Bft)
02.06.2015 18:20 20,2 C 17,2 C 70 % 0 lf 1011,8 hPa 0,0 l/m 0 min 0 min 87 W/m 25,1 km/h (4 Bft)
02.06.2015 18:22 20,2 C 17,2 C 70 % 0 lf 1011,7 hPa 0,0 l/m 0 min 0 min 88 W/m 20,9 km/h (4 Bft)
02.06.2015 18:24 20,2 C 17,2 C 70 % 0 lf 1011,6 hPa 0,0 l/m 0 min 0 min 102 W/m 20,9 km/h (4 Bft)
02.06.2015 18:26 20,2 C 17,2 C 71 % 0 lf 1011,6 hPa 0,0 l/m 0 min 0 min 123 W/m 20,9 km/h (4 Bft)
02.06.2015 18:28 20,2 C 17,2 C 71 % 0 lf 1011,6 hPa 0,0 l/m 0 min 0 min 122 W/m 20,9 km/h (4 Bft)
02.06.2015 18:30 20,2 C 17,2 C 70 % 0 lf 1011,6 hPa 0,0 l/m 0 min 0 min 114 W/m 18,8 km/h (3 Bft)
02.06.2015 18:32 20,2 C 17,2 C 70 % 0 lf 1011,6 hPa 0,0 l/m 0 min 0 min 108 W/m 27,2 km/h (4 Bft)
02.06.2015 18:34 20,2 C 17,2 C 70 % 0 lf 1011,6 hPa 0,0 l/m 0 min 0 min 102 W/m 16,7 km/h (3 Bft)
02.06.2015 18:36 20,2 C 17,2 C 70 % 0 lf 1011,7 hPa 0,0 l/m 0 min 0 min 87 W/m 20,9 km/h (4 Bft)
02.06.2015 18:38 20,2 C 17,2 C 71 % 0 lf 1011,7 hPa 0,0 l/m 0 min 0 min 76 W/m 25,1 km/h (4 Bft)
02.06.2015 18:40 20,2 C 17,2 C 71 % 0 lf 1011,7 hPa 0,0 l/m 0 min 0 min 69 W/m 20,9 km/h (4 Bft)
02.06.2015 18:42 20,2 C 17,2 C 71 % 0 lf 1011,8 hPa 0,0 l/m 0 min 0 min 62 W/m 18,8 km/h (3 Bft)
02.06.2015 18:44 20,2 C 16,7 C 71 % 0 lf 1011,8 hPa 0,0 l/m 0 min 0 min 55 W/m 23,0 km/h (4 Bft)
02.06.2015 18:46 20,2 C 16,7 C 71 % 0 lf 1011,9 hPa 0,0 l/m 0 min 0 min 51 W/m 18,8 km/h (3 Bft)
02.06.2015 18:48 20,2 C 16,7 C 71 % 0 lf 1011,8 hPa 0,0 l/m 0 min 0 min 45 W/m 20,9 km/h (4 Bft)
02.06.2015 18:50 20,2 C 16,7 C 71 % 0 lf 1011,9 hPa 0,0 l/m 0 min 0 min 40 W/m 16,7 km/h (3 Bft)
02.06.2015 18:52 20,2 C 16,7 C 71 % 0 lf 1011,9 hPa 0,0 l/m 0 min 0 min 36 W/m 18,8 km/h (3 Bft)
02.06.2015 18:54 20,2 C 16,7 C 71 % 0 lf 1012,0 hPa 0,0 l/m 0 min 0 min 34 W/m 16,7 km/h (3 Bft)
02.06.2015 18:56 20,2 C 16,7 C 71 % 0 lf 1012,0 hPa 0,0 l/m 0 min 0 min 33 W/m 16,7 km/h (3 Bft)
02.06.2015 18:58 20,1 C 16,7 C 71 % 0 lf 1012,0 hPa 0,0 l/m 0 min 0 min 32 W/m 14,6 km/h (3 Bft)
02.06.2015 19:00 20,1 C 16,7 C 71 % 0 lf 1012,0 hPa 0,0 l/m 0 min 0 min 33 W/m 20,9 km/h (4 Bft)
02.06.2015 19:02 20,1 C 16,7 C 71 % 0 lf 1012,0 hPa 0,0 l/m 0 min 0 min 36 W/m 14,6 km/h (3 Bft)
02.06.2015 19:04 20,1 C 16,7 C 71 % 0 lf 1012,0 hPa 0,0 l/m 0 min 0 min 37 W/m 18,8 km/h (3 Bft)
02.06.2015 19:06 20,1 C 16,7 C 72 % 0 lf 1012,0 hPa 0,0 l/m 0 min 0 min 39 W/m 18,8 km/h (3 Bft)
02.06.2015 19:08 20,1 C 16,7 C 72 % 0 lf 1011,9 hPa 0,0 l/m 0 min 0 min 34 W/m 16,7 km/h (3 Bft)
02.06.2015 19:10 20,0 C 16,7 C 72 % 0 lf 1012,0 hPa 0,0 l/m 0 min 0 min 32 W/m 20,9 km/h (4 Bft)
02.06.2015 19:12 20,0 C 16,7 C 72 % 0 lf 1012,1 hPa 0,0 l/m 0 min 0 min 30 W/m 23,0 km/h (4 Bft)
02.06.2015 19:14 20,0 C 16,7 C 72 % 0 lf 1012,0 hPa 0,0 l/m 0 min 0 min 27 W/m 18,8 km/h (3 Bft)
02.06.2015 19:16 19,9 C 16,7 C 72 % 0 lf 1012,0 hPa 0,0 l/m 0 min 0 min 25 W/m 16,7 km/h (3 Bft)
02.06.2015 19:18 19,9 C 16,7 C 72 % 0 lf 1012,1 hPa 0,0 l/m 0 min 0 min 26 W/m 18,8 km/h (3 Bft)
02.06.2015 19:20 19,9 C 16,7 C 72 % 0 lf 1012,1 hPa 0,0 l/m 0 min 0 min 27 W/m 20,9 km/h (4 Bft)
02.06.2015 19:22 19,9 C 16,7 C 72 % 0 lf 1012,1 hPa 0,0 l/m 0 min 0 min 30 W/m 16,7 km/h (3 Bft)
02.06.2015 19:24 19,9 C 16,7 C 73 % 0 lf 1012,2 hPa 0,0 l/m 0 min 0 min 30 W/m 14,6 km/h (3 Bft)
02.06.2015 19:26 19,9 C 16,7 C 73 % 0 lf 1012,1 hPa 0,0 l/m 0 min 0 min 30 W/m 14,6 km/h (3 Bft)
02.06.2015 19:28 19,9 C 16,7 C 73 % 0 lf 1012,1 hPa 0,0 l/m 0 min 0 min 31 W/m 18,8 km/h (3 Bft)
02.06.2015 19:30 19,9 C 16,7 C 73 % 0 lf 1012,1 hPa 0,0 l/m 0 min 0 min 33 W/m 27,2 km/h (4 Bft)
02.06.2015 19:32 19,9 C 16,7 C 73 % 0 lf 1012,1 hPa 0,0 l/m 0 min 0 min 40 W/m 25,1 km/h (4 Bft)
02.06.2015 19:34 19,9 C 16,7 C 73 % 0 lf 1012,2 hPa 0,0 l/m 0 min 0 min 44 W/m 18,8 km/h (3 Bft)
02.06.2015 19:36 19,9 C 16,7 C 73 % 0 lf 1012,2 hPa 0,0 l/m 0 min 0 min 49 W/m 20,9 km/h (4 Bft)
02.06.2015 19:38 19,9 C 16,7 C 74 % 0 lf 1012,2 hPa 0,0 l/m 0 min 0 min 61 W/m 20,9 km/h (4 Bft)
02.06.2015 19:40 19,9 C 16,7 C 74 % 0 lf 1012,3 hPa 0,0 l/m 0 min 0 min 76 W/m 16,7 km/h (3 Bft)
02.06.2015 19:42 19,9 C 16,7 C 74 % 0 lf 1012,3 hPa 0,0 l/m 0 min 0 min 85 W/m 27,2 km/h (4 Bft)
02.06.2015 19:44 19,9 C 17,2 C 74 % 0 lf 1012,4 hPa 0,0 l/m 0 min 0 min 99 W/m 50,2 km/h (7 Bft)
02.06.2015 19:46 19,9 C 17,2 C 74 % 0 lf 1012,4 hPa 0,0 l/m 0 min 0 min 94 W/m 35,6 km/h (5 Bft)
02.06.2015 19:48 20,0 C 17,2 C 74 % 0 lf 1012,4 hPa 0,0 l/m 0 min 0 min 94 W/m 31,4 km/h (5 Bft)
02.06.2015 19:50 20,0 C 17,2 C 73 % 0 lf 1012,3 hPa 0,0 l/m 0 min 0 min 109 W/m 31,4 km/h (5 Bft)
02.06.2015 19:52 20,1 C 17,2 C 73 % 0 lf 1012,4 hPa 0,0 l/m 0 min 0 min 114 W/m 43,9 km/h (6 Bft)
02.06.2015 19:54 20,1 C 17,2 C 73 % 0 lf 1012,4 hPa 0,0 l/m 0 min 0 min 102 W/m 33,5 km/h (5 Bft)
02.06.2015 19:56 20,1 C 17,2 C 73 % 0 lf 1012,5 hPa 0,0 l/m 0 min 0 min 77 W/m 39,7 km/h (6 Bft)
02.06.2015 19:58 20,1 C 17,2 C 73 % 0 lf 1012,5 hPa 0,0 l/m 0 min 0 min 68 W/m 35,6 km/h (5 Bft)
02.06.2015 20:00 20,2 C 17,2 C 73 % 0 lf 1012,4 hPa 0,0 l/m 0 min 0 min 92 W/m 29,3 km/h (5 Bft)
02.06.2015 20:02 20,2 C 17,2 C 72 % 0 lf 1012,5 hPa 0,0 l/m 2 min 0 min 107 W/m 29,3 km/h (5 Bft)
02.06.2015 20:04 20,2 C 17,2 C 72 % 0 lf 1012,5 hPa 0,0 l/m 2 min 0 min 112 W/m 33,5 km/h (5 Bft)
02.06.2015 20:06 20,2 C 17,2 C 72 % 0 lf 1012,4 hPa 0,0 l/m 2 min 0 min 138 W/m 37,7 km/h (5 Bft)
02.06.2015 20:08 20,2 C 17,2 C 71 % 0 lf 1012,4 hPa 0,0 l/m 2 min 0 min 177 W/m 23,0 km/h (4 Bft)
02.06.2015 20:10 20,2 C 17,2 C 71 % 0 lf 1012,4 hPa 0,0 l/m 2 min 0 min 131 W/m 29,3 km/h (5 Bft)
02.06.2015 20:12 20,2 C 17,2 C 71 % 0 lf 1012,3 hPa 0,0 l/m 2 min 0 min 101 W/m 33,5 km/h (5 Bft)
02.06.2015 20:14 20,2 C 17,2 C 71 % 0 lf 1012,4 hPa 0,0 l/m 2 min 0 min 121 W/m 29,3 km/h (5 Bft)
02.06.2015 20:16 20,2 C 17,2 C 71 % 0 lf 1012,5 hPa 0,0 l/m 2 min 0 min 106 W/m 35,6 km/h (5 Bft)
02.06.2015 20:18 20,2 C 17,2 C 71 % 0 lf 1012,5 hPa 0,0 l/m 0 min 0 min 80 W/m 37,7 km/h (5 Bft)
02.06.2015 20:20 20,2 C 17,2 C 71 % 0 lf 1012,5 hPa 0,0 l/m 2 min 0 min 91 W/m 41,8 km/h (6 Bft)
02.06.2015 20:22 20,2 C 17,2 C 71 % 0 lf 1012,6 hPa 0,0 l/m 2 min 0 min 86 W/m 39,7 km/h (6 Bft)
02.06.2015 20:24 20,2 C 17,2 C 71 % 0 lf 1012,5 hPa 0,0 l/m 2 min 0 min 115 W/m 31,4 km/h (5 Bft)
02.06.2015 20:26 20,2 C 17,2 C 70 % 0 lf 1012,6 hPa 0,0 l/m 2 min 0 min 92 W/m 35,6 km/h (5 Bft)
02.06.2015 20:28 20,2 C 16,7 C 70 % 0 lf 1012,6 hPa 0,0 l/m 0 min 0 min 63 W/m 29,3 km/h (5 Bft)
02.06.2015 20:30 20,1 C 16,7 C 70 % 0 lf 1012,6 hPa 0,0 l/m 0 min 0 min 49 W/m 29,3 km/h (5 Bft)
02.06.2015 20:32 20,1 C 16,7 C 70 % 0 lf 1012,7 hPa 0,0 l/m 0 min 0 min 43 W/m 33,5 km/h (5 Bft)
02.06.2015 20:34 20,1 C 16,7 C 70 % 0 lf 1012,7 hPa 0,0 l/m 0 min 0 min 41 W/m 29,3 km/h (5 Bft)
02.06.2015 20:36 20,1 C 16,7 C 70 % 0 lf 1012,7 hPa 0,0 l/m 0 min 0 min 45 W/m 31,4 km/h (5 Bft)
02.06.2015 20:38 20,0 C 16,7 C 70 % 0 lf 1012,7 hPa 0,0 l/m 0 min 0 min 33 W/m 33,5 km/h (5 Bft)
02.06.2015 20:40 20,0 C 16,7 C 70 % 0 lf 1012,7 hPa 0,0 l/m 0 min 0 min 38 W/m 27,2 km/h (4 Bft)
02.06.2015 20:42 19,9 C 16,7 C 70 % 0 lf 1012,7 hPa 0,0 l/m 0 min 0 min 35 W/m 35,6 km/h (5 Bft)
02.06.2015 20:44 19,9 C 16,7 C 70 % 0 lf 1012,7 hPa 0,0 l/m 0 min 0 min 38 W/m 27,2 km/h (4 Bft)
02.06.2015 20:46 19,9 C 16,7 C 71 % 0 lf 1012,7 hPa 0,0 l/m 0 min 0 min 49 W/m 25,1 km/h (4 Bft)
02.06.2015 20:48 19,9 C 16,7 C 71 % 0 lf 1012,7 hPa 0,0 l/m 0 min 0 min 46 W/m 29,3 km/h (5 Bft)
02.06.2015 20:50 19,9 C 16,7 C 71 % 0 lf 1012,7 hPa 0,0 l/m 0 min 0 min 35 W/m 25,1 km/h (4 Bft)
02.06.2015 20:52 19,8 C 16,7 C 71 % 0 lf 1012,7 hPa 0,0 l/m 0 min 0 min 33 W/m 48,1 km/h (6 Bft)
02.06.2015 20:54 19,8 C 16,7 C 71 % 0 lf 1012,8 hPa 0,0 l/m 0 min 0 min 27 W/m 25,1 km/h (4 Bft)
02.06.2015 20:56 19,8 C 16,7 C 71 % 0 lf 1012,8 hPa 0,0 l/m 0 min 0 min 23 W/m 20,9 km/h (4 Bft)
02.06.2015 20:58 19,8 C 16,7 C 71 % 0 lf 1012,7 hPa 0,0 l/m 0 min 0 min 24 W/m 23,0 km/h (4 Bft)
02.06.2015 21:00 19,8 C 16,7 C 71 % 0 lf 1012,7 hPa 0,0 l/m 0 min 0 min 16 W/m 18,8 km/h (3 Bft)
02.06.2015 21:02 19,7 C 16,7 C 71 % 0 lf 1012,8 hPa 0,0 l/m 0 min 0 min 19 W/m 25,1 km/h (4 Bft)
02.06.2015 21:04 19,7 C 16,7 C 71 % 0 lf 1012,7 hPa 0,0 l/m 0 min 0 min 27 W/m 33,5 km/h (5 Bft)
02.06.2015 21:06 19,7 C 16,7 C 71 % 0 lf 1012,7 hPa 0,0 l/m 0 min 0 min 30 W/m 23,0 km/h (4 Bft)
02.06.2015 21:08 19,7 C 16,1 C 71 % 0 lf 1012,7 hPa 0,0 l/m 0 min 0 min 21 W/m 25,1 km/h (4 Bft)
02.06.2015 21:10 19,7 C 16,1 C 71 % 0 lf 1012,8 hPa 0,0 l/m 0 min 0 min 16 W/m 23,0 km/h (4 Bft)
02.06.2015 21:12 19,7 C 16,1 C 71 % 0 lf 1012,7 hPa 0,0 l/m 0 min 0 min 17 W/m 23,0 km/h (4 Bft)
02.06.2015 21:14 19,7 C 16,1 C 71 % 0 lf 1012,7 hPa 0,0 l/m 0 min 0 min 16 W/m 27,2 km/h (4 Bft)
02.06.2015 21:16 19,7 C 16,1 C 71 % 0 lf 1012,8 hPa 0,0 l/m 0 min 0 min 16 W/m 23,0 km/h (4 Bft)
02.06.2015 21:18 19,6 C 16,1 C 71 % 0 lf 1012,7 hPa 0,0 l/m 0 min 0 min 16 W/m 23,0 km/h (4 Bft)
02.06.2015 21:20 19,6 C 16,1 C 71 % 0 lf 1012,7 hPa 0,0 l/m 0 min 0 min 15 W/m 41,8 km/h (6 Bft)
02.06.2015 21:22 19,6 C 16,1 C 72 % 0 lf 1012,7 hPa 0,0 l/m 0 min 0 min 13 W/m 23,0 km/h (4 Bft)
02.06.2015 21:24 19,6 C 16,1 C 72 % 0 lf 1012,8 hPa 0,0 l/m 0 min 0 min 11 W/m 20,9 km/h (4 Bft)
02.06.2015 21:26 19,6 C 16,1 C 72 % 0 lf 1012,7 hPa 0,0 l/m 0 min 0 min 11 W/m 31,4 km/h (5 Bft)
02.06.2015 21:28 19,5 C 16,1 C 72 % 0 lf 1012,8 hPa 0,0 l/m 0 min 0 min 9 W/m 35,6 km/h (5 Bft)
02.06.2015 21:30 19,5 C 16,1 C 72 % 0 lf 1012,8 hPa 0,0 l/m 0 min 0 min 9 W/m 41,8 km/h (6 Bft)
02.06.2015 21:32 19,5 C 16,1 C 72 % 0 lf 1012,8 hPa 0,0 l/m 0 min 0 min 8 W/m 33,5 km/h (5 Bft)
02.06.2015 21:34 19,4 C 16,1 C 73 % 0 lf 1012,8 hPa 0,0 l/m 0 min 0 min 7 W/m 27,2 km/h (4 Bft)
02.06.2015 21:36 19,4 C 16,1 C 73 % 0 lf 1012,8 hPa 0,0 l/m 0 min 0 min 7 W/m 29,3 km/h (5 Bft)
02.06.2015 21:38 19,4 C 16,1 C 73 % 0 lf 1012,8 hPa 0,0 l/m 0 min 0 min 7 W/m 27,2 km/h (4 Bft)
02.06.2015 21:40 19,4 C 16,1 C 73 % 0 lf 1012,8 hPa 0,0 l/m 0 min 0 min 7 W/m 29,3 km/h (5 Bft)
02.06.2015 21:42 19,4 C 16,1 C 73 % 0 lf 1012,8 hPa 0,0 l/m 0 min 0 min 6 W/m 23,0 km/h (4 Bft)
02.06.2015 21:44 19,3 C 16,1 C 73 % 0 lf 1012,8 hPa 0,0 l/m 0 min 0 min 5 W/m 25,1 km/h (4 Bft)
02.06.2015 21:46 19,3 C 16,1 C 73 % 0 lf 1012,8 hPa 0,0 l/m 0 min 0 min 5 W/m 27,2 km/h (4 Bft)
02.06.2015 21:48 19,3 C 16,1 C 73 % 0 lf 1012,8 hPa 0,0 l/m 0 min 0 min 5 W/m 25,1 km/h (4 Bft)
02.06.2015 21:50 19,2 C 16,1 C 74 % 0 lf 1012,9 hPa 0,0 l/m 0 min 0 min 4 W/m 18,8 km/h (3 Bft)
02.06.2015 21:52 19,2 C 15,6 C 74 % 0 lf 1012,8 hPa 0,0 l/m 0 min 0 min 0 W/m 23,0 km/h (4 Bft)
02.06.2015 21:54 19,2 C 15,6 C 74 % 0 lf 1012,8 hPa 0,0 l/m 0 min 0 min 0 W/m 25,1 km/h (4 Bft)
02.06.2015 21:56 19,2 C 15,6 C 74 % 0 lf 1012,9 hPa 0,0 l/m 0 min 0 min 0 W/m 27,2 km/h (4 Bft)
02.06.2015 21:58 19,1 C 15,6 C 74 % 0 lf 1012,9 hPa 0,0 l/m 0 min 0 min 0 W/m 25,1 km/h (4 Bft)
02.06.2015 22:00 19,1 C 15,6 C 74 % 0 lf 1012,9 hPa 0,0 l/m 0 min 0 min 0 W/m 27,2 km/h (4 Bft)
02.06.2015 22:02 19,1 C 15,6 C 75 % 0 lf 1012,9 hPa 0,0 l/m 0 min 0 min 0 W/m 20,9 km/h (4 Bft)
02.06.2015 22:04 19,1 C 15,6 C 75 % 0 lf 1013,0 hPa 0,0 l/m 0 min 0 min 0 W/m 20,9 km/h (4 Bft)
02.06.2015 22:06 19,1 C 15,6 C 75 % 0 lf 1013,0 hPa 0,0 l/m 0 min 0 min 0 W/m 23,0 km/h (4 Bft)
02.06.2015 22:08 19,0 C 15,6 C 75 % 0 lf 1013,0 hPa 0,0 l/m 0 min 0 min 0 W/m 18,8 km/h (3 Bft)
02.06.2015 22:10 19,0 C 15,6 C 75 % 0 lf 1013,0 hPa 0,0 l/m 0 min 0 min 0 W/m 27,2 km/h (4 Bft)
02.06.2015 22:12 19,0 C 15,6 C 75 % 0 lf 1013,0 hPa 0,0 l/m 0 min 0 min 0 W/m 25,1 km/h (4 Bft)
02.06.2015 22:14 18,9 C 15,6 C 75 % 0 lf 1013,0 hPa 0,0 l/m 0 min 0 min 0 W/m 23,0 km/h (4 Bft)
02.06.2015 22:16 18,9 C 15,6 C 76 % 0 lf 1013,0 hPa 0,0 l/m 0 min 0 min 0 W/m 27,2 km/h (4 Bft)
02.06.2015 22:18 18,9 C 15,6 C 75 % 0 lf 1013,1 hPa 0,0 l/m 0 min 0 min 0 W/m 18,8 km/h (3 Bft)
02.06.2015 22:20 18,9 C 15,6 C 76 % 0 lf 1013,0 hPa 0,0 l/m 0 min 0 min 0 W/m 25,1 km/h (4 Bft)
02.06.2015 22:22 18,9 C 15,6 C 76 % 0 lf 1013,1 hPa 0,0 l/m 0 min 0 min 0 W/m 23,0 km/h (4 Bft)
02.06.2015 22:24 18,9 C 15,6 C 76 % 0 lf 1013,1 hPa 0,0 l/m 0 min 0 min 0 W/m 31,4 km/h (5 Bft)
02.06.2015 22:26 18,9 C 15,6 C 76 % 0 lf 1013,0 hPa 0,0 l/m 0 min 0 min 0 W/m 18,8 km/h (3 Bft)
02.06.2015 22:28 18,9 C 15,6 C 76 % 0 lf 1013,0 hPa 0,0 l/m 0 min 0 min 0 W/m 23,0 km/h (4 Bft)
02.06.2015 22:30 18,9 C 15,6 C 76 % 0 lf 1013,1 hPa 0,0 l/m 0 min 0 min 0 W/m 25,1 km/h (4 Bft)
02.06.2015 22:32 18,9 C 15,6 C 76 % 0 lf 1013,1 hPa 0,0 l/m 0 min 0 min 0 W/m 23,0 km/h (4 Bft)
02.06.2015 22:34 18,8 C 15,6 C 76 % 0 lf 1013,1 hPa 0,0 l/m 0 min 0 min 0 W/m 25,1 km/h (4 Bft)
02.06.2015 22:36 18,8 C 15,6 C 77 % 0 lf 1013,0 hPa 0,0 l/m 0 min 0 min 0 W/m 25,1 km/h (4 Bft)
02.06.2015 22:38 18,8 C 16,1 C 77 % 0 lf 1013,0 hPa 0,0 l/m 0 min 0 min 0 W/m 20,9 km/h (4 Bft)
02.06.2015 22:40 18,9 C 16,1 C 77 % 0 lf 1013,1 hPa 0,0 l/m 0 min 0 min 0 W/m 27,2 km/h (4 Bft)
02.06.2015 22:42 18,9 C 16,1 C 77 % 0 lf 1013,1 hPa 0,0 l/m 0 min 0 min 0 W/m 23,0 km/h (4 Bft)
02.06.2015 22:44 18,8 C 15,6 C 77 % 0 lf 1013,0 hPa 0,0 l/m 0 min 0 min 0 W/m 23,0 km/h (4 Bft)
02.06.2015 22:46 18,9 C 15,6 C 77 % 0 lf 1013,1 hPa 0,0 l/m 0 min 0 min 0 W/m 18,8 km/h (3 Bft)
02.06.2015 22:48 18,9 C 15,6 C 77 % 0 lf 1013,1 hPa 0,0 l/m 0 min 0 min 0 W/m 23,0 km/h (4 Bft)
02.06.2015 22:50 18,9 C 15,6 C 77 % 0 lf 1013,1 hPa 0,0 l/m 0 min 0 min 0 W/m 16,7 km/h (3 Bft)
02.06.2015 22:52 18,9 C 15,6 C 77 % 0 lf 1013,1 hPa 0,0 l/m 0 min 0 min 0 W/m 23,0 km/h (4 Bft)
02.06.2015 22:54 18,9 C 15,6 C 77 % 0 lf 1013,2 hPa 0,0 l/m 0 min 0 min 0 W/m 23,0 km/h (4 Bft)
02.06.2015 22:56 18,9 C 15,6 C 77 % 0 lf 1013,1 hPa 0,0 l/m 0 min 0 min 0 W/m 20,9 km/h (4 Bft)
02.06.2015 22:58 18,9 C 15,6 C 77 % 0 lf 1013,2 hPa 0,0 l/m 0 min 0 min 0 W/m 16,7 km/h (3 Bft)
02.06.2015 23:00 18,8 C 15,6 C 77 % 0 lf 1013,2 hPa 0,0 l/m 0 min 0 min 0 W/m 10,5 km/h (2 Bft)
02.06.2015 23:02 18,8 C 15,6 C 77 % 0 lf 1013,2 hPa 0,0 l/m 0 min 0 min 0 W/m 27,2 km/h (4 Bft)
02.06.2015 23:04 18,8 C 15,6 C 77 % 0 lf 1013,1 hPa 0,0 l/m 0 min 0 min 0 W/m 18,8 km/h (3 Bft)
02.06.2015 23:06 18,8 C 16,1 C 77 % 0 lf 1013,2 hPa 0,0 l/m 0 min 0 min 0 W/m 25,1 km/h (4 Bft)
02.06.2015 23:08 18,8 C 16,1 C 78 % 0 lf 1013,2 hPa 0,0 l/m 0 min 0 min 0 W/m 18,8 km/h (3 Bft)
02.06.2015 23:10 18,8 C 16,1 C 78 % 0 lf 1013,2 hPa 0,0 l/m 0 min 0 min 0 W/m 14,6 km/h (3 Bft)
02.06.2015 23:12 18,8 C 16,1 C 78 % 0 lf 1013,2 hPa 0,0 l/m 0 min 0 min 0 W/m 18,8 km/h (3 Bft)
02.06.2015 23:14 18,8 C 16,1 C 77 % 0 lf 1013,2 hPa 0,0 l/m 0 min 0 min 0 W/m 18,8 km/h (3 Bft)
02.06.2015 23:16 18,8 C 15,6 C 78 % 0 lf 1013,2 hPa 0,0 l/m 0 min 0 min 0 W/m 14,6 km/h (3 Bft)
02.06.2015 23:18 18,8 C 15,6 C 78 % 0 lf 1013,1 hPa 0,0 l/m 0 min 0 min 0 W/m 27,2 km/h (4 Bft)
02.06.2015 23:20 18,8 C 15,6 C 78 % 0 lf 1013,1 hPa 0,0 l/m 0 min 0 min 0 W/m 23,0 km/h (4 Bft)
02.06.2015 23:22 18,8 C 15,6 C 78 % 0 lf 1013,1 hPa 0,0 l/m 0 min 0 min 0 W/m 18,8 km/h (3 Bft)
02.06.2015 23:24 18,8 C 15,6 C 78 % 0 lf 1013,2 hPa 0,0 l/m 0 min 0 min 0 W/m 23,0 km/h (4 Bft)
02.06.2015 23:26 18,8 C 16,1 C 78 % 0 lf 1013,1 hPa 0,0 l/m 0 min 0 min 0 W/m 16,7 km/h (3 Bft)
02.06.2015 23:28 18,8 C 15,6 C 78 % 0 lf 1013,2 hPa 0,0 l/m 0 min 0 min 0 W/m 23,0 km/h (4 Bft)
02.06.2015 23:30 18,8 C 15,6 C 77 % 0 lf 1013,2 hPa 0,0 l/m 0 min 0 min 0 W/m 27,2 km/h (4 Bft)
02.06.2015 23:32 18,8 C 15,6 C 77 % 0 lf 1013,2 hPa 0,0 l/m 0 min 0 min 0 W/m 20,9 km/h (4 Bft)
02.06.2015 23:34 18,9 C 15,6 C 78 % 0 lf 1013,2 hPa 0,0 l/m 0 min 0 min 0 W/m 14,6 km/h (3 Bft)
02.06.2015 23:36 18,8 C 15,6 C 78 % 0 lf 1013,2 hPa 0,0 l/m 0 min 0 min 0 W/m 14,6 km/h (3 Bft)
02.06.2015 23:38 18,8 C 15,6 C 78 % 0 lf 1013,2 hPa 0,0 l/m 0 min 0 min 0 W/m 12,6 km/h (3 Bft)
02.06.2015 23:40 18,8 C 15,6 C 78 % 0 lf 1013,2 hPa 0,0 l/m 0 min 0 min 0 W/m 23,0 km/h (4 Bft)
02.06.2015 23:42 18,8 C 15,6 C 78 % 0 lf 1013,2 hPa 0,0 l/m 0 min 0 min 0 W/m 10,5 km/h (2 Bft)
02.06.2015 23:44 18,8 C 15,6 C 78 % 0 lf 1013,3 hPa 0,0 l/m 0 min 0 min 0 W/m 23,0 km/h (4 Bft)
02.06.2015 23:46 18,8 C 15,6 C 78 % 0 lf 1013,2 hPa 0,0 l/m 0 min 0 min 0 W/m 18,8 km/h (3 Bft)
02.06.2015 23:48 18,8 C 15,6 C 78 % 0 lf 1013,3 hPa 0,0 l/m 0 min 0 min 0 W/m 18,8 km/h (3 Bft)
02.06.2015 23:50 18,8 C 15,6 C 78 % 0 lf 1013,2 hPa 0,0 l/m 0 min 0 min 0 W/m 16,7 km/h (3 Bft)
02.06.2015 23:52 18,8 C 15,6 C 78 % 0 lf 1013,3 hPa 0,0 l/m 0 min 0 min 0 W/m 20,9 km/h (4 Bft)
02.06.2015 23:54 18,7 C 15,6 C 78 % 0 lf 1013,3 hPa 0,0 l/m 0 min 0 min 0 W/m 12,6 km/h (3 Bft)
02.06.2015 23:56 18,7 C 15,6 C 78 % 0 lf 1013,3 hPa 0,0 l/m 0 min 0 min 0 W/m 18,8 km/h (3 Bft)
02.06.2015 23:58 18,7 C 15,6 C 78 % 0 lf 1013,3 hPa 0,0 l/m 0 min 0 min 0 W/m 14,6 km/h (3 Bft)
_ Min-Zeit 05:56 05:08 00:00 00:00 08:44 - - - - 01:02
Minimum _ 11,6 C 10,0 C 67 % 0 lf 1010,1 hPa - - - - 6,3 km/h (2 Bft)
_ Max-Zeit 13:56 13:36 06:18 05:28 00:00 05:16 10:06 04:38 13:48 13:12
Maximum _ 20,4 C 18,9 C 89 % 15 lf 1013,3 hPa 0,2 l/m 2 min 2 min 1030 W/m 56,5 km/h
S (7 Bft)
Durchschnitt _ 16,2 C 14,0 C 75 % 1 lf 1011,5 hPa #0,6 l/m #1:12 h #2:52 h 156 W/m 24,6 km/h (4 Bft)
© 2015 W. Hausmann